Observation data for Rotan on 11/19/2019      Previous  Date       Current Mesonet Observations  Soil Data  Daily Summary Page  Observations in Plain Language
KRO1 190600Z 20008KT 12/04 A2996 RMK A01 T01210036  RH  056%=      5-min Rain = 0
KRO1 190601Z 20008KT 12/04 A2996 RMK A01 T01220036  RH  056%=      5-min Rain = 0
KRO1 190602Z 20008KT 12/04 A2996 RMK A01 T01230035  RH  055%=      5-min Rain = 0
KRO1 190603Z 20008KT 12/04 A2996 RMK A01 T01230035  RH  055%=      5-min Rain = 0
KRO1 190604Z 20008KT 12/04 A2996 RMK A01 T01230035  RH  055%=      5-min Rain = 0
KRO1 190605Z 20008KT 12/03 A2996 RMK A01 T01230034  RH  055%=      5-min Rain = 0
KRO1 190606Z 19009KT 12/04 A2996 RMK A01 T01230035  RH  055%=      5-min Rain = 0
KRO1 190607Z 19009KT 12/04 A2996 RMK A01 T01230035  RH  055%=      5-min Rain = 0
KRO1 190608Z 19009KT 12/04 A2996 RMK A01 T01230035  RH  055%=      5-min Rain = 0
KRO1 190609Z 19009KT 12/04 A2996 RMK A01 T01230035  RH  055%=      5-min Rain = 0
KRO1 190610Z 19009KT 12/04 A2996 RMK A01 T01230035  RH  055%=      5-min Rain = 0
KRO1 190611Z 19009KT 12/03 A2996 RMK A01 T01230034  RH  055%=      5-min Rain = 0
KRO1 190612Z 19009KT 12/04 A2996 RMK A01 T01230035  RH  055%=      5-min Rain = 0
KRO1 190613Z 19009KT 12/04 A2996 RMK A01 T01230035  RH  055%=      5-min Rain = 0
KRO1 190614Z 20009KT 12/03 A2996 RMK A01 T01240034  RH  054%=      5-min Rain = 0
KRO1 190615Z 20008KT 12/03 A2996 RMK A01 T01240034  RH  054%=      5-min Rain = 0
KRO1 190616Z 20008KT 12/03 A2996 RMK A01 T01240034  RH  054%=      5-min Rain = 0
KRO1 190617Z 20008KT 12/03 A2996 RMK A01 T01230034  RH  055%=      5-min Rain = 0
KRO1 190618Z 20008KT 12/03 A2996 RMK A01 T01220034  RH  055%=      5-min Rain = 0
KRO1 190619Z 21007KT 12/03 A2996 RMK A01 T01210034  RH  055%=      5-min Rain = 0
KRO1 190620Z 21006KT 12/03 A2996 RMK A01 T01180034  RH  056%=      5-min Rain = 0
KRO1 190621Z 21006KT 12/03 A2996 RMK A01 T01170034  RH  057%=      5-min Rain = 0
KRO1 190622Z 20006KT 12/03 A2995 RMK A01 T01150034  RH  057%=      5-min Rain = 0
KRO1 190623Z 20006KT 11/03 A2995 RMK A01 T01140033  RH  058%=      5-min Rain = 0
KRO1 190624Z 20006KT 11/03 A2995 RMK A01 T01130033  RH  058%=      5-min Rain = 0
KRO1 190625Z 20006KT 11/03 A2995 RMK A01 T01120033  RH  058%=      5-min Rain = 0
KRO1 190626Z 20007KT 11/03 A2995 RMK A01 T01120033  RH  058%=      5-min Rain = 0
KRO1 190627Z 20007KT 11/03 A2995 RMK A01 T01110033  RH  058%=      5-min Rain = 0
KRO1 190628Z 19007KT 11/03 A2995 RMK A01 T01110032  RH  058%=      5-min Rain = 0
KRO1 190629Z 19008KT 11/03 A2995 RMK A01 T01110032  RH  058%=      5-min Rain = 0
KRO1 190630Z 19008KT 11/03 A2995 RMK A01 T01110032  RH  058%=      5-min Rain = 0
KRO1 190631Z 19007KT 11/03 A2995 RMK A01 T01110032  RH  058%=      5-min Rain = 0
KRO1 190632Z 19007KT 11/03 A2995 RMK A01 T01110032  RH  058%=      5-min Rain = 0
KRO1 190633Z 19007KT 11/03 A2995 RMK A01 T01120033  RH  058%=      5-min Rain = 0
KRO1 190634Z 19006KT 11/03 A2995 RMK A01 T01120033  RH  058%=      5-min Rain = 0
KRO1 190635Z 19006KT 11/03 A2995 RMK A01 T01130033  RH  058%=      5-min Rain = 0
KRO1 190636Z 18006KT 11/03 A2995 RMK A01 T01130033  RH  058%=      5-min Rain = 0
KRO1 190637Z 18006KT 11/03 A2995 RMK A01 T01140033  RH  057%=      5-min Rain = 0
KRO1 190638Z 18006KT 12/03 A2995 RMK A01 T01150033  RH  057%=      5-min Rain = 0
KRO1 190639Z 18005KT 12/03 A2995 RMK A01 T01160033  RH  057%=      5-min Rain = 0
KRO1 190640Z 18006KT 12/03 A2995 RMK A01 T01160032  RH  056%=      5-min Rain = 0
KRO1 190641Z 18007KT 12/03 A2995 RMK A01 T01170032  RH  056%=      5-min Rain = 0
KRO1 190642Z 18007KT 12/03 A2995 RMK A01 T01180032  RH  055%=      5-min Rain = 0
KRO1 190643Z 18008KT 12/03 A2995 RMK A01 T01190032  RH  055%=      5-min Rain = 0
KRO1 190644Z 18008KT 12/03 A2995 RMK A01 T01200033  RH  055%=      5-min Rain = 0
KRO1 190645Z 18008KT 12/03 A2995 RMK A01 T01210033  RH  055%=      5-min Rain = 0
KRO1 190646Z 18008KT 12/03 A2995 RMK A01 T01220033  RH  055%=      5-min Rain = 0
KRO1 190647Z 18008KT 12/03 A2995 RMK A01 T01230033  RH  054%=      5-min Rain = 0
KRO1 190648Z 18008KT 12/03 A2995 RMK A01 T01240033  RH  054%=      5-min Rain = 0
KRO1 190649Z 18008KT 13/03 A2995 RMK A01 T01250033  RH  054%=      5-min Rain = 0
KRO1 190650Z 18008KT 13/03 A2995 RMK A01 T01250034  RH  054%=      5-min Rain = 0
KRO1 190651Z 18008KT 13/03 A2995 RMK A01 T01250033  RH  053%=      5-min Rain = 0
KRO1 190652Z 18008KT 13/03 A2995 RMK A01 T01260033  RH  053%=      5-min Rain = 0
KRO1 190653Z 18008KT 13/03 A2995 RMK A01 T01260033  RH  053%=      5-min Rain = 0
KRO1 190654Z 18008KT 13/03 A2995 RMK A01 T01250033  RH  054%=      5-min Rain = 0
KRO1 190655Z 18008KT 12/03 A2995 RMK A01 T01240033  RH  054%=      5-min Rain = 0
KRO1 190656Z 18008KT 12/03 A2995 RMK A01 T01240034  RH  054%=      5-min Rain = 0
KRO1 190657Z 18007KT 12/03 A2995 RMK A01 T01230033  RH  054%=      5-min Rain = 0
KRO1 190658Z 18007KT 12/03 A2995 RMK A01 T01230033  RH  054%=      5-min Rain = 0
KRO1 190659Z 18007KT 12/03 A2995 RMK A01 T01220033  RH  054%=      5-min Rain = 0
KRO1 190700Z 18007KT 12/03 A2995 RMK A01 T01220033  RH  055%=      5-min Rain = 0
KRO1 190701Z 18007KT 12/03 A2995 RMK A01 T01210033  RH  055%=      5-min Rain = 0
KRO1 190702Z 18007KT 12/03 A2995 RMK A01 T01200032  RH  055%=      5-min Rain = 0
KRO1 190703Z 18007KT 12/03 A2995 RMK A01 T01190032  RH  055%=      5-min Rain = 0
KRO1 190704Z 18006KT 12/03 A2995 RMK A01 T01190032  RH  055%=      5-min Rain = 0
KRO1 190705Z 18006KT 12/03 A2995 RMK A01 T01180032  RH  055%=      5-min Rain = 0
KRO1 190706Z 19006KT 12/03 A2995 RMK A01 T01180032  RH  055%=      5-min Rain = 0
KRO1 190707Z 19006KT 12/03 A2995 RMK A01 T01180031  RH  055%=      5-min Rain = 0
KRO1 190708Z 19007KT 12/03 A2995 RMK A01 T01170031  RH  056%=      5-min Rain = 0
KRO1 190709Z 19007KT 12/03 A2995 RMK A01 T01170031  RH  056%=      5-min Rain = 0
KRO1 190710Z 18006KT 12/03 A2995 RMK A01 T01160032  RH  056%=      5-min Rain = 0
KRO1 190711Z 18006KT 12/03 A2995 RMK A01 T01150031  RH  056%=      5-min Rain = 0
KRO1 190712Z 18006KT 12/03 A2995 RMK A01 T01150031  RH  056%=      5-min Rain = 0
KRO1 190713Z 18006KT 12/03 A2995 RMK A01 T01150031  RH  057%=      5-min Rain = 0
KRO1 190714Z 18006KT 11/03 A2995 RMK A01 T01140031  RH  057%=      5-min Rain = 0
KRO1 190715Z 18006KT 11/03 A2995 RMK A01 T01140031  RH  057%=      5-min Rain = 0
KRO1 190716Z 18006KT 11/03 A2995 RMK A01 T01130031  RH  057%=      5-min Rain = 0
KRO1 190717Z 18005KT 11/03 A2995 RMK A01 T01120031  RH  057%=      5-min Rain = 0
KRO1 190718Z 19005KT 11/03 A2995 RMK A01 T01120031  RH  057%=      5-min Rain = 0
KRO1 190719Z 19005KT 11/03 A2995 RMK A01 T01110031  RH  058%=      5-min Rain = 0
KRO1 190720Z 19005KT 11/03 A2995 RMK A01 T01100030  RH  058%=      5-min Rain = 0
KRO1 190721Z 19006KT 11/03 A2995 RMK A01 T01100030  RH  058%=      5-min Rain = 0
KRO1 190722Z 19006KT 11/03 A2995 RMK A01 T01100031  RH  058%=      5-min Rain = 0
KRO1 190723Z 19006KT 11/03 A2995 RMK A01 T01090031  RH  058%=      5-min Rain = 0
KRO1 190724Z 19005KT 11/03 A2995 RMK A01 T01090031  RH  059%=      5-min Rain = 0
KRO1 190725Z 19005KT 11/03 A2995 RMK A01 T01080031  RH  059%=      5-min Rain = 0
KRO1 190726Z 19005KT 11/03 A2995 RMK A01 T01080031  RH  059%=      5-min Rain = 0
KRO1 190727Z 19005KT 11/03 A2995 RMK A01 T01080031  RH  059%=      5-min Rain = 0
KRO1 190728Z 19004KT 11/03 A2995 RMK A01 T01080031  RH  059%=      5-min Rain = 0
KRO1 190729Z 19005KT 11/03 A2995 RMK A01 T01080031  RH  059%=      5-min Rain = 0
KRO1 190730Z 18004KT 11/03 A2995 RMK A01 T01080031  RH  059%=      5-min Rain = 0
KRO1 190731Z 18006KT 11/03 A2995 RMK A01 T01080031  RH  059%=      5-min Rain = 0
KRO1 190732Z 18006KT 11/03 A2995 RMK A01 T01090031  RH  059%=      5-min Rain = 0
KRO1 190733Z 18006KT 11/03 A2995 RMK A01 T01090031  RH  059%=      5-min Rain = 0
KRO1 190734Z 18006KT 11/03 A2995 RMK A01 T01080031  RH  059%=      5-min Rain = 0
KRO1 190735Z 18007KT 11/03 A2995 RMK A01 T01070031  RH  059%=      5-min Rain = 0
KRO1 190736Z 19007KT 11/03 A2995 RMK A01 T01050030  RH  060%=      5-min Rain = 0
KRO1 190737Z 19006KT 10/03 A2995 RMK A01 T01040030  RH  060%=      5-min Rain = 0
KRO1 190738Z 19005KT 10/03 A2995 RMK A01 T01030031  RH  061%=      5-min Rain = 0
KRO1 190739Z 19005KT 10/03 A2995 RMK A01 T01020031  RH  061%=      5-min Rain = 0
KRO1 190740Z 19005KT 10/03 A2995 RMK A01 T01010031  RH  062%=      5-min Rain = 0
KRO1 190741Z 19005KT 10/03 A2995 RMK A01 T01020031  RH  062%=      5-min Rain = 0
KRO1 190742Z 19006KT 10/03 A2995 RMK A01 T01020031  RH  061%=      5-min Rain = 0
KRO1 190743Z 19006KT 10/03 A2995 RMK A01 T01020031  RH  061%=      5-min Rain = 0
KRO1 190744Z 20006KT 10/03 A2995 RMK A01 T01030031  RH  061%=      5-min Rain = 0
KRO1 190745Z 20006KT 10/03 A2995 RMK A01 T01040031  RH  061%=      5-min Rain = 0
KRO1 190746Z 20006KT 10/03 A2995 RMK A01 T01040031  RH  061%=      5-min Rain = 0
KRO1 190747Z 20007KT 10/03 A2995 RMK A01 T01040032  RH  061%=      5-min Rain = 0
KRO1 190748Z 20006KT 10/03 A2995 RMK A01 T01040032  RH  061%=      5-min Rain = 0
KRO1 190749Z 20007KT 10/03 A2995 RMK A01 T01040032  RH  061%=      5-min Rain = 0
KRO1 190750Z 20007KT 11/03 A2995 RMK A01 T01050032  RH  061%=      5-min Rain = 0
KRO1 190751Z 20007KT 11/03 A2995 RMK A01 T01060033  RH  061%=      5-min Rain = 0
KRO1 190752Z 20007KT 11/03 A2995 RMK A01 T01060033  RH  060%=      5-min Rain = 0
KRO1 190753Z 20008KT 11/03 A2995 RMK A01 T01070033  RH  060%=      5-min Rain = 0
KRO1 190754Z 19007KT 11/03 A2995 RMK A01 T01080033  RH  060%=      5-min Rain = 0
KRO1 190755Z 20008KT 11/03 A2995 RMK A01 T01090033  RH  060%=      5-min Rain = 0
KRO1 190756Z 20008KT 11/03 A2995 RMK A01 T01100034  RH  059%=      5-min Rain = 0
KRO1 190757Z 20008KT 11/03 A2995 RMK A01 T01100033  RH  059%=      5-min Rain = 0
KRO1 190758Z 20008KT 11/03 A2995 RMK A01 T01100033  RH  059%=      5-min Rain = 0
KRO1 190759Z 20008KT 11/03 A2995 RMK A01 T01110033  RH  059%=      5-min Rain = 0
KRO1 190800Z 20007KT 11/03 A2995 RMK A01 T01110034  RH  059%=      5-min Rain = 0
KRO1 190801Z 20007KT 11/03 A2995 RMK A01 T01110034  RH  059%=      5-min Rain = 0
KRO1 190802Z 20007KT 11/03 A2995 RMK A01 T01110033  RH  059%=      5-min Rain = 0
KRO1 190803Z 20007KT 11/03 A2995 RMK A01 T01110033  RH  059%=      5-min Rain = 0
KRO1 190804Z 20007KT 11/03 A2995 RMK A01 T01100033  RH  059%=      5-min Rain = 0
KRO1 190805Z 20007KT 11/03 A2995 RMK A01 T01100033  RH  059%=      5-min Rain = 0
KRO1 190806Z 20007KT 11/03 A2995 RMK A01 T01100033  RH  059%=      5-min Rain = 0
KRO1 190807Z 20007KT 11/03 A2995 RMK A01 T01100033  RH  059%=      5-min Rain = 0
KRO1 190808Z 20007KT 11/03 A2995 RMK A01 T01090033  RH  059%=      5-min Rain = 0
KRO1 190809Z 21007KT 11/03 A2995 RMK A01 T01080033  RH  060%=      5-min Rain = 0
KRO1 190810Z 20007KT 11/03 A2995 RMK A01 T01080033  RH  060%=      5-min Rain = 0
KRO1 190811Z 20007KT 11/03 A2995 RMK A01 T01080033  RH  060%=      5-min Rain = 0
KRO1 190812Z 21007KT 11/03 A2995 RMK A01 T01080033  RH  060%=      5-min Rain = 0
KRO1 190813Z 21007KT 11/03 A2995 RMK A01 T01080033  RH  060%=      5-min Rain = 0
KRO1 190814Z 21007KT 11/03 A2995 RMK A01 T01080033  RH  060%=      5-min Rain = 0
KRO1 190815Z 21007KT 11/03 A2995 RMK A01 T01080033  RH  060%=      5-min Rain = 0
KRO1 190816Z 21007KT 11/03 A2995 RMK A01 T01080033  RH  060%=      5-min Rain = 0
KRO1 190817Z 21007KT 11/03 A2995 RMK A01 T01080033  RH  060%=      5-min Rain = 0
KRO1 190818Z 21007KT 11/03 A2995 RMK A01 T01080033  RH  060%=      5-min Rain = 0
KRO1 190819Z 20007KT 11/03 A2995 RMK A01 T01080033  RH  060%=      5-min Rain = 0
KRO1 190820Z 21007KT 11/03 A2995 RMK A01 T01070033  RH  060%=      5-min Rain = 0
KRO1 190821Z 21007KT 11/03 A2995 RMK A01 T01060033  RH  060%=      5-min Rain = 0
KRO1 190822Z 21008KT 11/03 A2995 RMK A01 T01060033  RH  061%=      5-min Rain = 0
KRO1 190823Z 21007KT 11/03 A2995 RMK A01 T01050033  RH  061%=      5-min Rain = 0
KRO1 190824Z 21007KT 10/03 A2995 RMK A01 T01040033  RH  061%=      5-min Rain = 0
KRO1 190825Z 21007KT 10/03 A2995 RMK A01 T01040032  RH  061%=      5-min Rain = 0
KRO1 190826Z 21006KT 11/03 A2995 RMK A01 T01050032  RH  061%=      5-min Rain = 0
KRO1 190827Z 21006KT 11/03 A2995 RMK A01 T01060033  RH  061%=      5-min Rain = 0
KRO1 190828Z 22006KT 11/03 A2995 RMK A01 T01060032  RH  060%=      5-min Rain = 0
KRO1 190829Z 22005KT 11/03 A2995 RMK A01 T01070032  RH  060%=      5-min Rain = 0
KRO1 190830Z 22006KT 11/03 A2995 RMK A01 T01070032  RH  060%=      5-min Rain = 0
KRO1 190831Z 22006KT 11/03 A2995 RMK A01 T01080032  RH  059%=      5-min Rain = 0
KRO1 190832Z 22005KT 11/03 A2995 RMK A01 T01080032  RH  059%=      5-min Rain = 0
KRO1 190833Z 22006KT 11/03 A2995 RMK A01 T01080032  RH  059%=      5-min Rain = 0
KRO1 190834Z 22005KT 11/03 A2995 RMK A01 T01080032  RH  059%=      5-min Rain = 0
KRO1 190835Z 22005KT 11/03 A2995 RMK A01 T01070032  RH  060%=      5-min Rain = 0
KRO1 190836Z 22005KT 11/03 A2995 RMK A01 T01060032  RH  060%=      5-min Rain = 0
KRO1 190837Z 22006KT 11/03 A2995 RMK A01 T01050030  RH  060%=      5-min Rain = 0
KRO1 190838Z 22006KT 10/03 A2995 RMK A01 T01040030  RH  060%=      5-min Rain = 0
KRO1 190839Z 22006KT 10/03 A2995 RMK A01 T01030030  RH  060%=      5-min Rain = 0
KRO1 190840Z 22006KT 10/03 A2995 RMK A01 T01030030  RH  061%=      5-min Rain = 0
KRO1 190841Z 22006KT 10/03 A2995 RMK A01 T01030031  RH  061%=      5-min Rain = 0
KRO1 190842Z 23006KT 10/03 A2995 RMK A01 T01030031  RH  061%=      5-min Rain = 0
KRO1 190843Z 23005KT 10/03 A2995 RMK A01 T01020030  RH  061%=      5-min Rain = 0
KRO1 190844Z 23005KT 10/03 A2995 RMK A01 T01020031  RH  061%=      5-min Rain = 0
KRO1 190845Z 23006KT 10/03 A2995 RMK A01 T01010031  RH  062%=      5-min Rain = 0
KRO1 190846Z 23006KT 10/03 A2995 RMK A01 T01000030  RH  062%=      5-min Rain = 0
KRO1 190847Z 23006KT 10/03 A2995 RMK A01 T01000030  RH  062%=      5-min Rain = 0
KRO1 190848Z 22007KT 10/03 A2995 RMK A01 T00980030  RH  062%=      5-min Rain = 0
KRO1 190849Z 23007KT 10/03 A2995 RMK A01 T00970029  RH  063%=      5-min Rain = 0
KRO1 190850Z 23007KT 10/03 A2995 RMK A01 T00960029  RH  063%=      5-min Rain = 0
KRO1 190851Z 23007KT 09/03 A2995 RMK A01 T00940029  RH  064%=      5-min Rain = 0
KRO1 190852Z 23007KT 09/03 A2995 RMK A01 T00930029  RH  064%=      5-min Rain = 0
KRO1 190853Z 23007KT 09/03 A2995 RMK A01 T00930030  RH  065%=      5-min Rain = 0
KRO1 190854Z 22007KT 09/03 A2995 RMK A01 T00920030  RH  065%=      5-min Rain = 0
KRO1 190855Z 22008KT 09/03 A2995 RMK A01 T00920030  RH  065%=      5-min Rain = 0
KRO1 190856Z 22008KT 09/03 A2995 RMK A01 T00910030  RH  065%=      5-min Rain = 0
KRO1 190857Z 23007KT 09/03 A2995 RMK A01 T00900030  RH  066%=      5-min Rain = 0
KRO1 190858Z 23006KT 09/03 A2995 RMK A01 T00890030  RH  066%=      5-min Rain = 0
KRO1 190859Z 23007KT 09/03 A2995 RMK A01 T00890030  RH  066%=      5-min Rain = 0
KRO1 190900Z 23006KT 09/03 A2995 RMK A01 T00900030  RH  066%=      5-min Rain = 0
KRO1 190901Z 23006KT 09/03 A2995 RMK A01 T00900030  RH  066%=      5-min Rain = 0
KRO1 190902Z 24005KT 09/03 A2995 RMK A01 T00900031  RH  067%=      5-min Rain = 0
KRO1 190903Z 24005KT 09/03 A2995 RMK A01 T00890031  RH  067%=      5-min Rain = 0
KRO1 190904Z 25004KT 09/03 A2995 RMK A01 T00890031  RH  067%=      5-min Rain = 0
KRO1 190905Z 24004KT 09/03 A2995 RMK A01 T00890031  RH  067%=      5-min Rain = 0
KRO1 190906Z 24004KT 09/03 A2995 RMK A01 T00880031  RH  067%=      5-min Rain = 0
KRO1 190907Z 24004KT 09/03 A2995 RMK A01 T00880031  RH  067%=      5-min Rain = 0
KRO1 190908Z 24003KT 09/03 A2995 RMK A01 T00870030  RH  067%=      5-min Rain = 0
KRO1 190909Z 25004KT 09/03 A2995 RMK A01 T00870030  RH  067%=      5-min Rain = 0
KRO1 190910Z 25004KT 09/03 A2995 RMK A01 T00870030  RH  067%=      5-min Rain = 0
KRO1 190911Z 25004KT 09/03 A2995 RMK A01 T00860030  RH  068%=      5-min Rain = 0
KRO1 190912Z 25004KT 09/03 A2995 RMK A01 T00850030  RH  068%=      5-min Rain = 0
KRO1 190913Z 25004KT 08/03 A2995 RMK A01 T00840030  RH  069%=      5-min Rain = 0
KRO1 190914Z 24005KT 08/03 A2995 RMK A01 T00840030  RH  069%=      5-min Rain = 0
KRO1 190915Z 25006KT 08/03 A2995 RMK A01 T00830030  RH  069%=      5-min Rain = 0
KRO1 190916Z 24006KT 08/03 A2995 RMK A01 T00840030  RH  069%=      5-min Rain = 0
KRO1 190917Z 24006KT 08/03 A2995 RMK A01 T00830030  RH  069%=      5-min Rain = 0
KRO1 190918Z 25006KT 08/03 A2995 RMK A01 T00820030  RH  070%=      5-min Rain = 0
KRO1 190919Z 25006KT 08/03 A2995 RMK A01 T00810030  RH  070%=      5-min Rain = 0
KRO1 190920Z 24006KT 08/03 A2995 RMK A01 T00800030  RH  071%=      5-min Rain = 0
KRO1 190921Z 24007KT 08/03 A2995 RMK A01 T00800030  RH  071%=      5-min Rain = 0
KRO1 190922Z 24007KT 08/03 A2995 RMK A01 T00800030  RH  071%=      5-min Rain = 0
KRO1 190923Z 24006KT 08/03 A2995 RMK A01 T00800030  RH  071%=      5-min Rain = 0
KRO1 190924Z 24006KT 08/03 A2995 RMK A01 T00800030  RH  071%=      5-min Rain = 0
KRO1 190925Z 24006KT 08/03 A2995 RMK A01 T00790030  RH  071%=      5-min Rain = 0
KRO1 190926Z 23007KT 08/03 A2995 RMK A01 T00790030  RH  071%=      5-min Rain = 0
KRO1 190927Z 23007KT 08/03 A2995 RMK A01 T00790030  RH  071%=      5-min Rain = 0
KRO1 190928Z 23007KT 08/03 A2995 RMK A01 T00790030  RH  071%=      5-min Rain = 0
KRO1 190929Z 23007KT 08/03 A2995 RMK A01 T00790030  RH  071%=      5-min Rain = 0
KRO1 190930Z 23007KT 08/03 A2995 RMK A01 T00800030  RH  071%=      5-min Rain = 0
KRO1 190931Z 23007KT 08/03 A2995 RMK A01 T00820030  RH  070%=      5-min Rain = 0
KRO1 190932Z 23008KT 08/03 A2995 RMK A01 T00840030  RH  069%=      5-min Rain = 0
KRO1 190933Z 23008KT 08/03 A2995 RMK A01 T00840029  RH  068%=      5-min Rain = 0
KRO1 190934Z 23008KT 09/03 A2995 RMK A01 T00850029  RH  068%=      5-min Rain = 0
KRO1 190935Z 23007KT 09/03 A2995 RMK A01 T00850030  RH  068%=      5-min Rain = 0
KRO1 190936Z 23008KT 09/03 A2995 RMK A01 T00860030  RH  068%=      5-min Rain = 0
KRO1 190937Z 23007KT 09/03 A2995 RMK A01 T00870030  RH  067%=      5-min Rain = 0
KRO1 190938Z 22007KT 09/03 A2995 RMK A01 T00900031  RH  067%=      5-min Rain = 0
KRO1 190939Z 23007KT 09/03 A2995 RMK A01 T00910031  RH  066%=      5-min Rain = 0
KRO1 190940Z 22007KT 09/03 A2995 RMK A01 T00920031  RH  066%=      5-min Rain = 0
KRO1 190941Z 22007KT 09/03 A2995 RMK A01 T00940032  RH  065%=      5-min Rain = 0
KRO1 190942Z 22006KT 09/03 A2995 RMK A01 T00940032  RH  065%=      5-min Rain = 0
KRO1 190943Z 22006KT 10/03 A2995 RMK A01 T00950032  RH  065%=      5-min Rain = 0
KRO1 190944Z 22006KT 10/03 A2995 RMK A01 T00950031  RH  064%=      5-min Rain = 0
KRO1 190945Z 22007KT 10/03 A2995 RMK A01 T00950031  RH  064%=      5-min Rain = 0
KRO1 190946Z 22006KT 10/03 A2995 RMK A01 T00950031  RH  064%=      5-min Rain = 0
KRO1 190947Z 23006KT 10/03 A2995 RMK A01 T00950031  RH  064%=      5-min Rain = 0
KRO1 190948Z 23006KT 10/03 A2995 RMK A01 T00960031  RH  064%=      5-min Rain = 0
KRO1 190949Z 22007KT 10/03 A2995 RMK A01 T00960031  RH  064%=      5-min Rain = 0
KRO1 190950Z 22007KT 10/03 A2995 RMK A01 T00960031  RH  064%=      5-min Rain = 0
KRO1 190951Z 22007KT 10/03 A2995 RMK A01 T00960031  RH  064%=      5-min Rain = 0
KRO1 190952Z 22007KT 10/03 A2995 RMK A01 T00960031  RH  064%=      5-min Rain = 0
KRO1 190953Z 22007KT 10/03 A2995 RMK A01 T00960031  RH  064%=      5-min Rain = 0
KRO1 190954Z 23007KT 10/03 A2995 RMK A01 T00960031  RH  064%=      5-min Rain = 0
KRO1 190955Z 23007KT 10/03 A2995 RMK A01 T00950031  RH  064%=      5-min Rain = 0
KRO1 190956Z 22007KT 10/03 A2995 RMK A01 T00950031  RH  064%=      5-min Rain = 0
KRO1 190957Z 23007KT 10/03 A2995 RMK A01 T00950031  RH  064%=      5-min Rain = 0
KRO1 190958Z 23007KT 10/03 A2995 RMK A01 T00950031  RH  064%=      5-min Rain = 0
KRO1 190959Z 23007KT 10/03 A2995 RMK A01 T00950031  RH  064%=      5-min Rain = 0
KRO1 191000Z 23007KT 09/03 A2995 RMK A01 T00940031  RH  065%=      5-min Rain = 0
KRO1 191001Z 23007KT 09/03 A2995 RMK A01 T00940031  RH  065%=      5-min Rain = 0
KRO1 191002Z 23006KT 09/03 A2995 RMK A01 T00930031  RH  065%=      5-min Rain = 0
KRO1 191003Z 23006KT 09/03 A2995 RMK A01 T00930031  RH  065%=      5-min Rain = 0
KRO1 191004Z 23006KT 09/03 A2995 RMK A01 T00920031  RH  065%=      5-min Rain = 0
KRO1 191005Z 23006KT 09/03 A2995 RMK A01 T00920031  RH  065%=      5-min Rain = 0
KRO1 191006Z 24006KT 09/03 A2995 RMK A01 T00930031  RH  065%=      5-min Rain = 0
KRO1 191007Z 24006KT 09/03 A2995 RMK A01 T00930031  RH  065%=      5-min Rain = 0
KRO1 191008Z 24006KT 09/03 A2995 RMK A01 T00930031  RH  065%=      5-min Rain = 0
KRO1 191009Z 24006KT 09/03 A2995 RMK A01 T00930031  RH  065%=      5-min Rain = 0
KRO1 191010Z 24006KT 09/03 A2995 RMK A01 T00930031  RH  065%=      5-min Rain = 0
KRO1 191011Z 24006KT 09/03 A2995 RMK A01 T00940031  RH  065%=      5-min Rain = 0
KRO1 191012Z 24006KT 09/03 A2995 RMK A01 T00930031  RH  065%=      5-min Rain = 0
KRO1 191013Z 24005KT 09/03 A2995 RMK A01 T00920031  RH  065%=      5-min Rain = 0
KRO1 191014Z 24005KT 09/03 A2995 RMK A01 T00920031  RH  065%=      5-min Rain = 0
KRO1 191015Z 24005KT 09/03 A2995 RMK A01 T00920031  RH  066%=      5-min Rain = 0
KRO1 191016Z 24005KT 09/03 A2995 RMK A01 T00920031  RH  066%=      5-min Rain = 0
KRO1 191017Z 25005KT 09/03 A2995 RMK A01 T00920031  RH  065%=      5-min Rain = 0
KRO1 191018Z 25006KT 09/03 A2995 RMK A01 T00940030  RH  065%=      5-min Rain = 0
KRO1 191019Z 25006KT 10/03 A2995 RMK A01 T00950030  RH  064%=      5-min Rain = 0
KRO1 191020Z 25006KT 10/03 A2995 RMK A01 T00950030  RH  064%=      5-min Rain = 0
KRO1 191021Z 25006KT 09/03 A2995 RMK A01 T00940030  RH  064%=      5-min Rain = 0
KRO1 191022Z 25005KT 09/03 A2995 RMK A01 T00940030  RH  064%=      5-min Rain = 0
KRO1 191023Z 25005KT 09/03 A2995 RMK A01 T00940030  RH  064%=      5-min Rain = 0
KRO1 191024Z 26006KT 09/03 A2995 RMK A01 T00940031  RH  064%=      5-min Rain = 0
KRO1 191025Z 26006KT 09/03 A2995 RMK A01 T00930030  RH  065%=      5-min Rain = 0
KRO1 191026Z 26006KT 09/03 A2995 RMK A01 T00930030  RH  065%=      5-min Rain = 0
KRO1 191027Z 26006KT 09/03 A2995 RMK A01 T00920030  RH  065%=      5-min Rain = 0
KRO1 191028Z 26006KT 09/03 A2995 RMK A01 T00910030  RH  065%=      5-min Rain = 0
KRO1 191029Z 26006KT 09/03 A2995 RMK A01 T00910030  RH  066%=      5-min Rain = 0
KRO1 191030Z 26006KT 09/03 A2995 RMK A01 T00900030  RH  066%=      5-min Rain = 0
KRO1 191031Z 25005KT 09/03 A2995 RMK A01 T00890030  RH  066%=      5-min Rain = 0
KRO1 191032Z 25006KT 09/03 A2995 RMK A01 T00880030  RH  067%=      5-min Rain = 0
KRO1 191033Z 25005KT 09/03 A2994 RMK A01 T00880030  RH  067%=      5-min Rain = 0
KRO1 191034Z 24006KT 09/03 A2994 RMK A01 T00870030  RH  067%=      5-min Rain = 0
KRO1 191035Z 24006KT 09/03 A2994 RMK A01 T00870030  RH  068%=      5-min Rain = 0
KRO1 191036Z 24006KT 09/03 A2994 RMK A01 T00860030  RH  068%=      5-min Rain = 0
KRO1 191037Z 24006KT 09/03 A2994 RMK A01 T00860030  RH  068%=      5-min Rain = 0
KRO1 191038Z 24006KT 09/03 A2994 RMK A01 T00860030  RH  068%=      5-min Rain = 0
KRO1 191039Z 23006KT 09/03 A2994 RMK A01 T00860031  RH  068%=      5-min Rain = 0
KRO1 191040Z 23005KT 09/03 A2994 RMK A01 T00850031  RH  068%=      5-min Rain = 0
KRO1 191041Z 23005KT 09/03 A2994 RMK A01 T00850030  RH  069%=      5-min Rain = 0
KRO1 191042Z 23005KT 09/03 A2994 RMK A01 T00850031  RH  069%=      5-min Rain = 0
KRO1 191043Z 23006KT 09/03 A2994 RMK A01 T00850031  RH  069%=      5-min Rain = 0
KRO1 191044Z 23006KT 09/03 A2994 RMK A01 T00850030  RH  068%=      5-min Rain = 0
KRO1 191045Z 23006KT 09/03 A2994 RMK A01 T00860030  RH  068%=      5-min Rain = 0
KRO1 191046Z 23006KT 09/03 A2994 RMK A01 T00860030  RH  068%=      5-min Rain = 0
KRO1 191047Z 23006KT 09/03 A2994 RMK A01 T00870030  RH  067%=      5-min Rain = 0
KRO1 191048Z 23006KT 09/03 A2994 RMK A01 T00890030  RH  067%=      5-min Rain = 0
KRO1 191049Z 23005KT 09/03 A2994 RMK A01 T00900030  RH  066%=      5-min Rain = 0
KRO1 191050Z 23006KT 09/03 A2994 RMK A01 T00900030  RH  066%=      5-min Rain = 0
KRO1 191051Z 24006KT 09/03 A2994 RMK A01 T00910030  RH  066%=      5-min Rain = 0
KRO1 191052Z 24006KT 09/03 A2994 RMK A01 T00910030  RH  066%=      5-min Rain = 0
KRO1 191053Z 24006KT 09/03 A2994 RMK A01 T00920031  RH  066%=      5-min Rain = 0
KRO1 191054Z 24007KT 09/03 A2994 RMK A01 T00930031  RH  065%=      5-min Rain = 0
KRO1 191055Z 24007KT 09/03 A2994 RMK A01 T00930031  RH  065%=      5-min Rain = 0
KRO1 191056Z 24006KT 09/03 A2994 RMK A01 T00940031  RH  065%=      5-min Rain = 0
KRO1 191057Z 25006KT 10/03 A2994 RMK A01 T00950031  RH  064%=      5-min Rain = 0
KRO1 191058Z 24005KT 10/03 A2994 RMK A01 T00960031  RH  064%=      5-min Rain = 0
KRO1 191059Z 25004KT 10/03 A2994 RMK A01 T00960031  RH  064%=      5-min Rain = 0
KRO1 191100Z 24004KT 10/03 A2994 RMK A01 T00960031  RH  064%=      5-min Rain = 0
KRO1 191101Z 25004KT 10/03 A2994 RMK A01 T00950030  RH  064%=      5-min Rain = 0
KRO1 191102Z 25003KT 09/03 A2994 RMK A01 T00940030  RH  064%=      5-min Rain = 0
KRO1 191103Z 25002KT 09/03 A2995 RMK A01 T00940030  RH  064%=      5-min Rain = 0
KRO1 191104Z 27000KT 09/03 A2995 RMK A01 T00930030  RH  065%=      5-min Rain = 0
KRO1 191105Z 29002KT 09/03 A2995 RMK A01 T00930030  RH  065%=      5-min Rain = 0
KRO1 191106Z 27003KT 09/03 A2995 RMK A01 T00920030  RH  065%=      5-min Rain = 0
KRO1 191107Z 28003KT 09/03 A2995 RMK A01 T00920029  RH  065%=      5-min Rain = 0
KRO1 191108Z 30002KT 09/03 A2995 RMK A01 T00920029  RH  065%=      5-min Rain = 0
KRO1 191109Z 29002KT 09/03 A2995 RMK A01 T00920029  RH  065%=      5-min Rain = 0
KRO1 191110Z 29002KT 09/03 A2995 RMK A01 T00920029  RH  064%=      5-min Rain = 0
KRO1 191111Z 28003KT 09/03 A2995 RMK A01 T00920028  RH  064%=      5-min Rain = 0
KRO1 191112Z 27004KT 09/03 A2995 RMK A01 T00920028  RH  064%=      5-min Rain = 0
KRO1 191113Z 27004KT 09/03 A2995 RMK A01 T00910028  RH  065%=      5-min Rain = 0
KRO1 191114Z 26004KT 09/03 A2995 RMK A01 T00900028  RH  065%=      5-min Rain = 0
KRO1 191115Z 27005KT 09/03 A2995 RMK A01 T00890028  RH  065%=      5-min Rain = 0
KRO1 191116Z 26004KT 09/03 A2995 RMK A01 T00880027  RH  066%=      5-min Rain = 0
KRO1 191117Z 26005KT 09/03 A2995 RMK A01 T00880027  RH  066%=      5-min Rain = 0
KRO1 191118Z 26005KT 09/03 A2995 RMK A01 T00870028  RH  066%=      5-min Rain = 0
KRO1 191119Z 26005KT 09/03 A2995 RMK A01 T00860028  RH  067%=      5-min Rain = 0
KRO1 191120Z 26005KT 09/03 A2995 RMK A01 T00860028  RH  067%=      5-min Rain = 0
KRO1 191121Z 26004KT 09/03 A2995 RMK A01 T00850028  RH  067%=      5-min Rain = 0
KRO1 191122Z 26004KT 09/03 A2995 RMK A01 T00850028  RH  067%=      5-min Rain = 0
KRO1 191123Z 26004KT 08/03 A2995 RMK A01 T00840028  RH  068%=      5-min Rain = 0
KRO1 191124Z 26004KT 08/03 A2995 RMK A01 T00840029  RH  068%=      5-min Rain = 0
KRO1 191125Z 27004KT 08/03 A2995 RMK A01 T00840029  RH  068%=      5-min Rain = 0
KRO1 191126Z 27004KT 08/03 A2995 RMK A01 T00840029  RH  068%=      5-min Rain = 0
KRO1 191127Z 27004KT 09/03 A2995 RMK A01 T00850029  RH  068%=      5-min Rain = 0
KRO1 191128Z 27004KT 08/03 A2995 RMK A01 T00840029  RH  068%=      5-min Rain = 0
KRO1 191129Z 27004KT 08/03 A2995 RMK A01 T00830029  RH  069%=      5-min Rain = 0
KRO1 191130Z 27005KT 08/03 A2995 RMK A01 T00820029  RH  069%=      5-min Rain = 0
KRO1 191131Z 27005KT 08/03 A2995 RMK A01 T00820029  RH  069%=      5-min Rain = 0
KRO1 191132Z 27005KT 08/03 A2995 RMK A01 T00820029  RH  069%=      5-min Rain = 0
KRO1 191133Z 27005KT 08/03 A2995 RMK A01 T00830029  RH  069%=      5-min Rain = 0
KRO1 191134Z 27005KT 08/03 A2995 RMK A01 T00830029  RH  069%=      5-min Rain = 0
KRO1 191135Z 27005KT 08/03 A2995 RMK A01 T00830029  RH  069%=      5-min Rain = 0
KRO1 191136Z 27006KT 08/03 A2995 RMK A01 T00830029  RH  069%=      5-min Rain = 0
KRO1 191137Z 27006KT 08/03 A2995 RMK A01 T00830029  RH  069%=      5-min Rain = 0
KRO1 191138Z 27006KT 08/03 A2995 RMK A01 T00830030  RH  069%=      5-min Rain = 0
KRO1 191139Z 26005KT 08/03 A2995 RMK A01 T00820030  RH  070%=      5-min Rain = 0
KRO1 191140Z 26005KT 08/03 A2995 RMK A01 T00820030  RH  070%=      5-min Rain = 0
KRO1 191141Z 26005KT 08/03 A2995 RMK A01 T00810030  RH  070%=      5-min Rain = 0
KRO1 191142Z 26005KT 08/03 A2995 RMK A01 T00810030  RH  071%=      5-min Rain = 0
KRO1 191143Z 25004KT 08/03 A2995 RMK A01 T00800030  RH  071%=      5-min Rain = 0
KRO1 191144Z 26004KT 08/03 A2995 RMK A01 T00790030  RH  071%=      5-min Rain = 0
KRO1 191145Z 25004KT 08/03 A2995 RMK A01 T00790030  RH  071%=      5-min Rain = 0
KRO1 191146Z 25004KT 08/03 A2995 RMK A01 T00790030  RH  071%=      5-min Rain = 0
KRO1 191147Z 25004KT 08/03 A2995 RMK A01 T00790030  RH  071%=      5-min Rain = 0
KRO1 191148Z 25004KT 08/03 A2995 RMK A01 T00790029  RH  071%=      5-min Rain = 0
KRO1 191149Z 25004KT 08/03 A2995 RMK A01 T00800030  RH  070%=      5-min Rain = 0
KRO1 191150Z 25004KT 08/03 A2995 RMK A01 T00810030  RH  070%=      5-min Rain = 0
KRO1 191151Z 26004KT 08/03 A2995 RMK A01 T00820030  RH  070%=      5-min Rain = 0
KRO1 191152Z 26004KT 08/03 A2995 RMK A01 T00830030  RH  069%=      5-min Rain = 0
KRO1 191153Z 26003KT 08/03 A2995 RMK A01 T00830030  RH  069%=      5-min Rain = 0
KRO1 191154Z 27002KT 08/03 A2995 RMK A01 T00830031  RH  070%=      5-min Rain = 0
KRO1 191155Z 27003KT 08/03 A2995 RMK A01 T00800029  RH  070%=      5-min Rain = 0
KRO1 191156Z 27003KT 08/03 A2995 RMK A01 T00780029  RH  071%=      5-min Rain = 0
KRO1 191157Z 28003KT 08/03 A2995 RMK A01 T00750026  RH  071%=      5-min Rain = 0
KRO1 191158Z 28003KT 07/03 A2995 RMK A01 T00720026  RH  073%=      5-min Rain = 0
KRO1 191159Z 28003KT 07/03 A2995 RMK A01 T00690025  RH  074%=      5-min Rain = 0
KRO1 191200Z 29003KT 07/03 A2995 RMK A01 T00670026  RH  075%=      5-min Rain = 0
KRO1 191201Z 30003KT 07/03 A2995 RMK A01 T00650026  RH  076%=      5-min Rain = 0
KRO1 191202Z 30003KT 06/03 A2995 RMK A01 T00640026  RH  076%=      5-min Rain = 0
KRO1 191203Z 31004KT 06/03 A2995 RMK A01 T00640027  RH  077%=      5-min Rain = 0
KRO1 191204Z 31004KT 06/03 A2995 RMK A01 T00640027  RH  077%=      5-min Rain = 0
KRO1 191205Z 31003KT 06/03 A2995 RMK A01 T00640027  RH  077%=      5-min Rain = 0
KRO1 191206Z 30003KT 06/03 A2995 RMK A01 T00640027  RH  077%=      5-min Rain = 0
KRO1 191207Z 31003KT 06/03 A2995 RMK A01 T00640027  RH  077%=      5-min Rain = 0
KRO1 191208Z 31003KT 06/03 A2995 RMK A01 T00640027  RH  077%=      5-min Rain = 0
KRO1 191209Z 30003KT 07/03 A2995 RMK A01 T00650028  RH  077%=      5-min Rain = 0
KRO1 191210Z 30003KT 07/03 A2995 RMK A01 T00660028  RH  076%=      5-min Rain = 0
KRO1 191211Z 30003KT 07/03 A2995 RMK A01 T00670028  RH  076%=      5-min Rain = 0
KRO1 191212Z 31003KT 07/03 A2995 RMK A01 T00680028  RH  076%=      5-min Rain = 0
KRO1 191213Z 31002KT 07/03 A2995 RMK A01 T00680027  RH  076%=      5-min Rain = 0
KRO1 191214Z 30002KT 07/03 A2995 RMK A01 T00680027  RH  075%=      5-min Rain = 0
KRO1 191215Z 31003KT 07/03 A2995 RMK A01 T00680027  RH  075%=      5-min Rain = 0
KRO1 191216Z 30004KT 07/03 A2995 RMK A01 T00680027  RH  075%=      5-min Rain = 0
KRO1 191217Z 30004KT 07/03 A2995 RMK A01 T00680027  RH  075%=      5-min Rain = 0
KRO1 191218Z 30005KT 07/03 A2995 RMK A01 T00670026  RH  075%=      5-min Rain = 0
KRO1 191219Z 30005KT 07/03 A2995 RMK A01 T00670026  RH  075%=      5-min Rain = 0
KRO1 191220Z 29005KT 07/03 A2995 RMK A01 T00660026  RH  076%=      5-min Rain = 0
KRO1 191221Z 29006KT 07/03 A2995 RMK A01 T00650026  RH  076%=      5-min Rain = 0
KRO1 191222Z 29005KT 07/03 A2996 RMK A01 T00650026  RH  076%=      5-min Rain = 0
KRO1 191223Z 29006KT 07/03 A2996 RMK A01 T00650026  RH  076%=      5-min Rain = 0
KRO1 191224Z 29005KT 06/03 A2996 RMK A01 T00640026  RH  076%=      5-min Rain = 0
KRO1 191225Z 29005KT 06/03 A2996 RMK A01 T00640026  RH  076%=      5-min Rain = 0
KRO1 191226Z 29006KT 06/03 A2996 RMK A01 T00640026  RH  077%=      5-min Rain = 0
KRO1 191227Z 29006KT 06/03 A2996 RMK A01 T00640026  RH  077%=      5-min Rain = 0
KRO1 191228Z 29006KT 06/03 A2996 RMK A01 T00640026  RH  077%=      5-min Rain = 0
KRO1 191229Z 29006KT 06/03 A2996 RMK A01 T00640026  RH  077%=      5-min Rain = 0
KRO1 191230Z 29006KT 06/03 A2996 RMK A01 T00640026  RH  077%=      5-min Rain = 0
KRO1 191231Z 29006KT 06/03 A2996 RMK A01 T00640026  RH  077%=      5-min Rain = 0
KRO1 191232Z 29006KT 06/03 A2996 RMK A01 T00640026  RH  077%=      5-min Rain = 0
KRO1 191233Z 29006KT 06/03 A2996 RMK A01 T00640026  RH  077%=      5-min Rain = 0
KRO1 191234Z 29005KT 06/03 A2996 RMK A01 T00640027  RH  077%=      5-min Rain = 0
KRO1 191235Z 29005KT 07/03 A2996 RMK A01 T00650027  RH  077%=      5-min Rain = 0
KRO1 191236Z 29005KT 07/03 A2996 RMK A01 T00650027  RH  077%=      5-min Rain = 0
KRO1 191237Z 30005KT 07/03 A2996 RMK A01 T00650027  RH  076%=      5-min Rain = 0
KRO1 191238Z 30005KT 07/03 A2996 RMK A01 T00660027  RH  076%=      5-min Rain = 0
KRO1 191239Z 30005KT 07/03 A2996 RMK A01 T00660027  RH  076%=      5-min Rain = 0
KRO1 191240Z 30005KT 07/03 A2996 RMK A01 T00660027  RH  076%=      5-min Rain = 0
KRO1 191241Z 30005KT 07/03 A2996 RMK A01 T00660027  RH  076%=      5-min Rain = 0
KRO1 191242Z 30005KT 07/03 A2996 RMK A01 T00670027  RH  076%=      5-min Rain = 0
KRO1 191243Z 30005KT 07/03 A2996 RMK A01 T00670027  RH  076%=      5-min Rain = 0
KRO1 191244Z 30005KT 07/03 A2996 RMK A01 T00670027  RH  076%=      5-min Rain = 0
KRO1 191245Z 30005KT 07/03 A2996 RMK A01 T00670027  RH  076%=      5-min Rain = 0
KRO1 191246Z 30005KT 07/03 A2996 RMK A01 T00670027  RH  076%=      5-min Rain = 0
KRO1 191247Z 30005KT 07/03 A2996 RMK A01 T00660027  RH  076%=      5-min Rain = 0
KRO1 191248Z 29005KT 07/03 A2996 RMK A01 T00660027  RH  076%=      5-min Rain = 0
KRO1 191249Z 29005KT 07/03 A2996 RMK A01 T00650026  RH  076%=      5-min Rain = 0
KRO1 191250Z 29005KT 06/03 A2996 RMK A01 T00640026  RH  077%=      5-min Rain = 0
KRO1 191251Z 29005KT 06/03 A2996 RMK A01 T00630027  RH  077%=      5-min Rain = 0
KRO1 191252Z 29005KT 06/03 A2996 RMK A01 T00630027  RH  078%=      5-min Rain = 0
KRO1 191253Z 29004KT 06/03 A2997 RMK A01 T00620027  RH  078%=      5-min Rain = 0
KRO1 191254Z 29004KT 06/03 A2997 RMK A01 T00620027  RH  078%=      5-min Rain = 0
KRO1 191255Z 29004KT 06/03 A2997 RMK A01 T00620027  RH  078%=      5-min Rain = 0
KRO1 191256Z 29004KT 06/03 A2997 RMK A01 T00620027  RH  078%=      5-min Rain = 0
KRO1 191257Z 29004KT 06/03 A2997 RMK A01 T00600026  RH  079%=      5-min Rain = 0
KRO1 191258Z 29005KT 06/03 A2997 RMK A01 T00600027  RH  079%=      5-min Rain = 0
KRO1 191259Z 29005KT 06/03 A2997 RMK A01 T00600027  RH  079%=      5-min Rain = 0
KRO1 191300Z 30004KT 06/03 A2997 RMK A01 T00600027  RH  079%=      5-min Rain = 0
KRO1 191301Z 30005KT 06/03 A2997 RMK A01 T00600027  RH  079%=      5-min Rain = 0
KRO1 191302Z 30005KT 06/03 A2997 RMK A01 T00610027  RH  079%=      5-min Rain = 0
KRO1 191303Z 30004KT 06/03 A2997 RMK A01 T00610027  RH  079%=      5-min Rain = 0
KRO1 191304Z 30005KT 06/03 A2997 RMK A01 T00610027  RH  079%=      5-min Rain = 0
KRO1 191305Z 31005KT 06/03 A2997 RMK A01 T00620027  RH  078%=      5-min Rain = 0
KRO1 191306Z 30005KT 06/03 A2997 RMK A01 T00630027  RH  078%=      5-min Rain = 0
KRO1 191307Z 30005KT 06/03 A2997 RMK A01 T00620026  RH  077%=      5-min Rain = 0
KRO1 191308Z 30005KT 06/03 A2997 RMK A01 T00620026  RH  078%=      5-min Rain = 0
KRO1 191309Z 30005KT 06/03 A2997 RMK A01 T00610026  RH  078%=      5-min Rain = 0
KRO1 191310Z 30006KT 06/03 A2997 RMK A01 T00620027  RH  078%=      5-min Rain = 0
KRO1 191311Z 30006KT 06/03 A2997 RMK A01 T00620026  RH  078%=      5-min Rain = 0
KRO1 191312Z 30006KT 06/03 A2997 RMK A01 T00620026  RH  078%=      5-min Rain = 0
KRO1 191313Z 29006KT 06/03 A2997 RMK A01 T00620027  RH  078%=      5-min Rain = 0
KRO1 191314Z 30005KT 06/03 A2997 RMK A01 T00620027  RH  078%=      5-min Rain = 0
KRO1 191315Z 29006KT 06/03 A2997 RMK A01 T00620027  RH  078%=      5-min Rain = 0
KRO1 191316Z 29005KT 06/03 A2997 RMK A01 T00620027  RH  078%=      5-min Rain = 0
KRO1 191317Z 29005KT 06/03 A2997 RMK A01 T00630028  RH  078%=      5-min Rain = 0
KRO1 191318Z 29005KT 06/03 A2997 RMK A01 T00630028  RH  078%=      5-min Rain = 0
KRO1 191319Z 29005KT 06/03 A2997 RMK A01 T00640028  RH  078%=      5-min Rain = 0
KRO1 191320Z 29005KT 06/03 A2997 RMK A01 T00640028  RH  078%=      5-min Rain = 0
KRO1 191321Z 29004KT 07/03 A2998 RMK A01 T00650028  RH  077%=      5-min Rain = 0
KRO1 191322Z 29004KT 07/03 A2998 RMK A01 T00650028  RH  077%=      5-min Rain = 0
KRO1 191323Z 28004KT 07/03 A2998 RMK A01 T00650028  RH  077%=      5-min Rain = 0
KRO1 191324Z 28003KT 07/03 A2998 RMK A01 T00650028  RH  077%=      5-min Rain = 0
KRO1 191325Z 28003KT 06/03 A2998 RMK A01 T00640028  RH  077%=      5-min Rain = 0
KRO1 191326Z 28002KT 06/03 A2998 RMK A01 T00640027  RH  077%=      5-min Rain = 0
KRO1 191327Z 28003KT 06/03 A2998 RMK A01 T00630027  RH  078%=      5-min Rain = 0
KRO1 191328Z 27003KT 06/03 A2998 RMK A01 T00620026  RH  078%=      5-min Rain = 0
KRO1 191329Z 27003KT 06/03 A2998 RMK A01 T00620026  RH  078%=      5-min Rain = 0
KRO1 191330Z 27003KT 06/03 A2998 RMK A01 T00630026  RH  078%=      5-min Rain = 0
KRO1 191331Z 26003KT 06/03 A2998 RMK A01 T00630026  RH  077%=      5-min Rain = 0
KRO1 191332Z 26003KT 06/03 A2998 RMK A01 T00630026  RH  077%=      5-min Rain = 0
KRO1 191333Z 26004KT 06/03 A2998 RMK A01 T00640026  RH  076%=      5-min Rain = 0
KRO1 191334Z 26004KT 07/03 A2998 RMK A01 T00650026  RH  076%=      5-min Rain = 0
KRO1 191335Z 26004KT 07/03 A2998 RMK A01 T00660026  RH  075%=      5-min Rain = 0
KRO1 191336Z 26004KT 07/03 A2998 RMK A01 T00670025  RH  075%=      5-min Rain = 0
KRO1 191337Z 26003KT 07/03 A2998 RMK A01 T00670025  RH  075%=      5-min Rain = 0
KRO1 191338Z 25003KT 07/03 A2998 RMK A01 T00660025  RH  075%=      5-min Rain = 0
KRO1 191339Z 25003KT 07/03 A2998 RMK A01 T00650026  RH  076%=      5-min Rain = 0
KRO1 191340Z 25003KT 06/03 A2998 RMK A01 T00640026  RH  077%=      5-min Rain = 0
KRO1 191341Z 26003KT 06/03 A2998 RMK A01 T00620026  RH  077%=      5-min Rain = 0
KRO1 191342Z 26002KT 06/03 A2998 RMK A01 T00620026  RH  078%=      5-min Rain = 0
KRO1 191343Z 26002KT 06/03 A2998 RMK A01 T00620026  RH  078%=      5-min Rain = 0
KRO1 191344Z 26002KT 06/03 A2998 RMK A01 T00620026  RH  078%=      5-min Rain = 0
KRO1 191345Z 26002KT 06/03 A2998 RMK A01 T00620026  RH  077%=      5-min Rain = 0
KRO1 191346Z 26002KT 06/03 A2998 RMK A01 T00630026  RH  077%=      5-min Rain = 0
KRO1 191347Z 26002KT 06/03 A2998 RMK A01 T00640026  RH  077%=      5-min Rain = 0
KRO1 191348Z 26002KT 07/03 A2998 RMK A01 T00650026  RH  076%=      5-min Rain = 0
KRO1 191349Z 26002KT 07/03 A2998 RMK A01 T00650027  RH  076%=      5-min Rain = 0
KRO1 191350Z 26002KT 07/03 A2998 RMK A01 T00660027  RH  076%=      5-min Rain = 0
KRO1 191351Z 26002KT 07/03 A2998 RMK A01 T00660027  RH  076%=      5-min Rain = 0
KRO1 191352Z 27002KT 07/03 A2998 RMK A01 T00670027  RH  076%=      5-min Rain = 0
KRO1 191353Z 27002KT 07/03 A2998 RMK A01 T00680027  RH  075%=      5-min Rain = 0
KRO1 191354Z 27002KT 07/03 A2998 RMK A01 T00680028  RH  075%=      5-min Rain = 0
KRO1 191355Z 26002KT 07/03 A2998 RMK A01 T00690030  RH  076%=      5-min Rain = 0
KRO1 191356Z 26002KT 07/03 A2998 RMK A01 T00690030  RH  076%=      5-min Rain = 0
KRO1 191357Z 26002KT 07/03 A2998 RMK A01 T00700029  RH  075%=      5-min Rain = 0
KRO1 191358Z 26002KT 07/03 A2998 RMK A01 T00700029  RH  075%=      5-min Rain = 0
KRO1 191359Z 25002KT 07/03 A2998 RMK A01 T00700029  RH  075%=      5-min Rain = 0
KRO1 191400Z 25002KT 07/03 A2998 RMK A01 T00710029  RH  075%=      5-min Rain = 0
KRO1 191401Z 26002KT 07/03 A2998 RMK A01 T00710030  RH  075%=      5-min Rain = 0
KRO1 191402Z 26001KT 07/03 A2998 RMK A01 T00720031  RH  075%=      5-min Rain = 0
KRO1 191403Z 26002KT 07/03 A2998 RMK A01 T00740034  RH  076%=      5-min Rain = 0
KRO1 191404Z 26001KT 08/04 A2998 RMK A01 T00750036  RH  076%=      5-min Rain = 0
KRO1 191405Z 26001KT 08/04 A2998 RMK A01 T00770037  RH  076%=      5-min Rain = 0
KRO1 191406Z 25001KT 08/04 A2998 RMK A01 T00790042  RH  077%=      5-min Rain = 0
KRO1 191407Z 25000KT 08/04 A2998 RMK A01 T00800044  RH  078%=      5-min Rain = 0
KRO1 191408Z 00000KT 08/04 A2998 RMK A01 T00800038  RH  075%=      5-min Rain = 0
KRO1 191409Z 25000KT 08/04 A2998 RMK A01 T00780036  RH  074%=      5-min Rain = 0
KRO1 191410Z 00000KT 08/04 A2998 RMK A01 T00780038  RH  076%=      5-min Rain = 0
KRO1 191411Z 00000KT 08/04 A2998 RMK A01 T00780038  RH  075%=      5-min Rain = 0
KRO1 191412Z 00000KT 08/04 A2999 RMK A01 T00790038  RH  075%=      5-min Rain = 0
KRO1 191413Z 00000KT 08/04 A2999 RMK A01 T00790037  RH  075%=      5-min Rain = 0
KRO1 191414Z 00000KT 08/04 A2999 RMK A01 T00800038  RH  075%=      5-min Rain = 0
KRO1 191415Z 00000KT 08/04 A2999 RMK A01 T00810040  RH  075%=      5-min Rain = 0
KRO1 191416Z 00000KT 08/04 A2999 RMK A01 T00810040  RH  075%=      5-min Rain = 0
KRO1 191417Z 00000KT 08/04 A2999 RMK A01 T00820040  RH  075%=      5-min Rain = 0
KRO1 191418Z 00000KT 08/04 A2999 RMK A01 T00830038  RH  073%=      5-min Rain = 0
KRO1 191419Z 00000KT 08/04 A2999 RMK A01 T00830037  RH  073%=      5-min Rain = 0
KRO1 191420Z 00000KT 08/04 A2999 RMK A01 T00840039  RH  073%=      5-min Rain = 0
KRO1 191421Z 18000KT 09/04 A2999 RMK A01 T00850039  RH  073%=      5-min Rain = 0
KRO1 191422Z 17001KT 09/04 A2999 RMK A01 T00870041  RH  073%=      5-min Rain = 0
KRO1 191423Z 18001KT 09/04 A2999 RMK A01 T00890042  RH  072%=      5-min Rain = 0
KRO1 191424Z 20001KT 09/04 A2998 RMK A01 T00910043  RH  072%=      5-min Rain = 0
KRO1 191425Z 21001KT 09/04 A2998 RMK A01 T00920042  RH  071%=      5-min Rain = 0
KRO1 191426Z 21001KT 09/04 A2998 RMK A01 T00940042  RH  070%=      5-min Rain = 0
KRO1 191427Z 21001KT 10/04 A2998 RMK A01 T00950042  RH  070%=      5-min Rain = 0
KRO1 191428Z 22001KT 10/05 A2998 RMK A01 T00960047  RH  071%=      5-min Rain = 0
KRO1 191429Z 21000KT 10/05 A2998 RMK A01 T00970048  RH  071%=      5-min Rain = 0
KRO1 191430Z 20001KT 10/05 A2998 RMK A01 T00990047  RH  070%=      5-min Rain = 0
KRO1 191431Z 19000KT 10/05 A2998 RMK A01 T01000047  RH  070%=      5-min Rain = 0
KRO1 191432Z 20001KT 10/04 A2998 RMK A01 T01010044  RH  068%=      5-min Rain = 0
KRO1 191433Z 21001KT 10/05 A2998 RMK A01 T01010045  RH  068%=      5-min Rain = 0
KRO1 191434Z 21001KT 10/05 A2998 RMK A01 T01030048  RH  069%=      5-min Rain = 0
KRO1 191435Z 21002KT 11/05 A2998 RMK A01 T01050051  RH  069%=      5-min Rain = 0
KRO1 191436Z 21002KT 11/05 A2998 RMK A01 T01070048  RH  067%=      5-min Rain = 0
KRO1 191437Z 21003KT 11/05 A2998 RMK A01 T01090048  RH  066%=      5-min Rain = 0
KRO1 191438Z 21002KT 11/05 A2998 RMK A01 T01110050  RH  066%=      5-min Rain = 0
KRO1 191439Z 21002KT 11/05 A2998 RMK A01 T01130051  RH  066%=      5-min Rain = 0
KRO1 191440Z 21002KT 12/05 A2998 RMK A01 T01150051  RH  065%=      5-min Rain = 0
KRO1 191441Z 21003KT 12/05 A2998 RMK A01 T01170052  RH  064%=      5-min Rain = 0
KRO1 191442Z 21003KT 12/05 A2998 RMK A01 T01190053  RH  064%=      5-min Rain = 0
KRO1 191443Z 21003KT 12/05 A2998 RMK A01 T01210051  RH  062%=      5-min Rain = 0
KRO1 191444Z 21003KT 12/05 A2998 RMK A01 T01220054  RH  063%=      5-min Rain = 0
KRO1 191445Z 20006KT 12/05 A2998 RMK A01 T01240053  RH  062%=      5-min Rain = 0
KRO1 191446Z 21006KT 13/05 A2998 RMK A01 T01280053  RH  061%=      5-min Rain = 0
KRO1 191447Z 21006KT 13/06 A2998 RMK A01 T01320055  RH  059%=      5-min Rain = 0
KRO1 191448Z 21005KT 14/06 A2998 RMK A01 T01350056  RH  059%=      5-min Rain = 0
KRO1 191449Z 21007KT 14/06 A2998 RMK A01 T01360055  RH  058%=      5-min Rain = 0
KRO1 191450Z 21007KT 14/05 A2998 RMK A01 T01370054  RH  057%=      5-min Rain = 0
KRO1 191451Z 21006KT 14/05 A2998 RMK A01 T01370054  RH  057%=      5-min Rain = 0
KRO1 191452Z 21006KT 14/05 A2998 RMK A01 T01370054  RH  057%=      5-min Rain = 0
KRO1 191453Z 21006KT 14/05 A2998 RMK A01 T01370054  RH  057%=      5-min Rain = 0
KRO1 191454Z 21008KT 14/05 A2998 RMK A01 T01370054  RH  057%=      5-min Rain = 0
KRO1 191455Z 21007KT 14/05 A2998 RMK A01 T01380053  RH  056%=      5-min Rain = 0
KRO1 191456Z 21009KT 14/05 A2998 RMK A01 T01400054  RH  056%=      5-min Rain = 0
KRO1 191457Z 22008KT 14/05 A2998 RMK A01 T01410053  RH  055%=      5-min Rain = 0
KRO1 191458Z 21007KT 14/06 A2998 RMK A01 T01420056  RH  056%=      5-min Rain = 0
KRO1 191459Z 21008KT 14/06 A2998 RMK A01 T01440055  RH  055%=      5-min Rain = 0
KRO1 191500Z 21008KT 15/06 A2998 RMK A01 T01450055  RH  055%=      5-min Rain = 0
KRO1 191501Z 22006KT 15/06 A2998 RMK A01 T01450055  RH  055%=      5-min Rain = 0
KRO1 191502Z 22007KT 15/06 A2998 RMK A01 T01460058  RH  056%=      5-min Rain = 0
KRO1 191503Z 21006KT 15/06 A2998 RMK A01 T01470057  RH  055%=      5-min Rain = 0
KRO1 191504Z 21006KT 15/06 A2998 RMK A01 T01490058  RH  055%=      5-min Rain = 0
KRO1 191505Z 22007KT 15/06 A2998 RMK A01 T01490056  RH  054%=      5-min Rain = 0
KRO1 191506Z 22007KT 15/06 A2998 RMK A01 T01490055  RH  053%=      5-min Rain = 0
KRO1 191507Z 22005KT 15/06 A2998 RMK A01 T01490056  RH  054%=      5-min Rain = 0
KRO1 191508Z 22005KT 15/06 A2998 RMK A01 T01490059  RH  055%=      5-min Rain = 0
KRO1 191509Z 21007KT 15/06 A2998 RMK A01 T01500058  RH  054%=      5-min Rain = 0
KRO1 191510Z 21007KT 15/06 A2998 RMK A01 T01500057  RH  053%=      5-min Rain = 0
KRO1 191511Z 21007KT 15/06 A2998 RMK A01 T01500057  RH  054%=      5-min Rain = 0
KRO1 191512Z 21007KT 15/06 A2998 RMK A01 T01510056  RH  053%=      5-min Rain = 0
KRO1 191513Z 21005KT 15/06 A2998 RMK A01 T01520057  RH  053%=      5-min Rain = 0
KRO1 191514Z 21006KT 15/06 A2998 RMK A01 T01530060  RH  054%=      5-min Rain = 0
KRO1 191515Z 21005KT 15/06 A2998 RMK A01 T01540060  RH  053%=      5-min Rain = 0
KRO1 191516Z 21005KT 16/06 A2998 RMK A01 T01550059  RH  053%=      5-min Rain = 0
KRO1 191517Z 21005KT 16/06 A2998 RMK A01 T01560060  RH  053%=      5-min Rain = 0
KRO1 191518Z 21005KT 16/06 A2998 RMK A01 T01550060  RH  053%=      5-min Rain = 0
KRO1 191519Z 21005KT 16/06 A2998 RMK A01 T01550060  RH  053%=      5-min Rain = 0
KRO1 191520Z 21005KT 16/06 A2998 RMK A01 T01550060  RH  053%=      5-min Rain = 0
KRO1 191521Z 21005KT 16/06 A2998 RMK A01 T01550061  RH  053%=      5-min Rain = 0
KRO1 191522Z 21004KT 16/06 A2998 RMK A01 T01570062  RH  053%=      5-min Rain = 0
KRO1 191523Z 21004KT 16/06 A2998 RMK A01 T01580063  RH  053%=      5-min Rain = 0
KRO1 191524Z 22004KT 16/06 A2998 RMK A01 T01590063  RH  053%=      5-min Rain = 0
KRO1 191525Z 23004KT 16/06 A2998 RMK A01 T01600063  RH  052%=      5-min Rain = 0
KRO1 191526Z 22005KT 16/07 A2998 RMK A01 T01620065  RH  053%=      5-min Rain = 0
KRO1 191527Z 22008KT 17/06 A2998 RMK A01 T01650063  RH  051%=      5-min Rain = 0
KRO1 191528Z 22007KT 17/06 A2998 RMK A01 T01660061  RH  050%=      5-min Rain = 0
KRO1 191529Z 22007KT 17/06 A2998 RMK A01 T01670062  RH  050%=      5-min Rain = 0
KRO1 191530Z 22008KT 17/06 A2998 RMK A01 T01670062  RH  050%=      5-min Rain = 0
KRO1 191531Z 22005KT 17/06 A2998 RMK A01 T01680063  RH  050%=      5-min Rain = 0
KRO1 191532Z 23005KT 17/06 A2998 RMK A01 T01690064  RH  050%=      5-min Rain = 0
KRO1 191533Z 22006KT 17/06 A2998 RMK A01 T01710063  RH  049%=      5-min Rain = 0
KRO1 191534Z 21006KT 17/07 A2998 RMK A01 T01710065  RH  050%=      5-min Rain = 0
KRO1 191535Z 22007KT 17/07 A2998 RMK A01 T01740067  RH  049%=      5-min Rain = 0
KRO1 191536Z 21010KT 18/07 A2998 RMK A01 T01760065  RH  048%=      5-min Rain = 0
KRO1 191537Z 21010KT 18/06 A2998 RMK A01 T01760064  RH  048%=      5-min Rain = 0
KRO1 191538Z 21010KT 18/06 A2998 RMK A01 T01760064  RH  048%=      5-min Rain = 0
KRO1 191539Z 21010KT 18/06 A2998 RMK A01 T01760063  RH  047%=      5-min Rain = 0
KRO1 191540Z 21011KT 18/06 A2998 RMK A01 T01760063  RH  048%=      5-min Rain = 0
KRO1 191541Z 21012KT 18/06 A2998 RMK A01 T01760063  RH  047%=      5-min Rain = 0
KRO1 191542Z 20010KT 18/06 A2998 RMK A01 T01760063  RH  047%=      5-min Rain = 0
KRO1 191543Z 21010KT 18/06 A2998 RMK A01 T01770062  RH  047%=      5-min Rain = 0
KRO1 191544Z 21012KT 18/06 A2998 RMK A01 T01760063  RH  047%=      5-min Rain = 0
KRO1 191545Z 20013KT 18/06 A2998 RMK A01 T01770063  RH  047%=      5-min Rain = 0
KRO1 191546Z 20012KT 18/06 A2998 RMK A01 T01760062  RH  047%=      5-min Rain = 0
KRO1 191547Z 21010KT 18/06 A2998 RMK A01 T01760063  RH  047%=      5-min Rain = 0
KRO1 191548Z 21011KT 18/06 A2998 RMK A01 T01780063  RH  047%=      5-min Rain = 0
KRO1 191549Z 20012KT 18/06 A2998 RMK A01 T01780062  RH  047%=      5-min Rain = 0
KRO1 191550Z 20011KT 18/06 A2998 RMK A01 T01780062  RH  046%=      5-min Rain = 0
KRO1 191551Z 21011KT 18/06 A2998 RMK A01 T01770061  RH  047%=      5-min Rain = 0
KRO1 191552Z 20010KT 18/06 A2998 RMK A01 T01760062  RH  047%=      5-min Rain = 0
KRO1 191553Z 20011KT 18/06 A2998 RMK A01 T01780063  RH  047%=      5-min Rain = 0
KRO1 191554Z 20012KT 18/06 A2998 RMK A01 T01790063  RH  047%=      5-min Rain = 0
KRO1 191555Z 20011KT 18/06 A2998 RMK A01 T01790062  RH  046%=      5-min Rain = 0
KRO1 191556Z 20011KT 18/06 A2998 RMK A01 T01800063  RH  046%=      5-min Rain = 0
KRO1 191557Z 21008KT 18/06 A2998 RMK A01 T01800063  RH  046%=      5-min Rain = 0
KRO1 191558Z 21011KT 18/07 A2998 RMK A01 T01820065  RH  046%=      5-min Rain = 0
KRO1 191559Z 21009KT 18/07 A2998 RMK A01 T01830065  RH  046%=      5-min Rain = 0
KRO1 191600Z 20010KT 18/07 A2998 RMK A01 T01840065  RH  046%=      5-min Rain = 0
KRO1 191601Z 21011KT 19/06 A2998 RMK A01 T01850064  RH  045%=      5-min Rain = 0
KRO1 191602Z 20013KT 19/06 A2998 RMK A01 T01860064  RH  045%=      5-min Rain = 0
KRO1 191603Z 20012KT 19/06 A2998 RMK A01 T01860064  RH  045%=      5-min Rain = 0
KRO1 191604Z 20011KT 19/06 A2998 RMK A01 T01850064  RH  045%=      5-min Rain = 0
KRO1 191605Z 20010KT 19/07 A2998 RMK A01 T01860065  RH  045%=      5-min Rain = 0
KRO1 191606Z 20011KT 19/06 A2998 RMK A01 T01860064  RH  045%=      5-min Rain = 0
KRO1 191607Z 21011KT 19/07 A2998 RMK A01 T01870066  RH  045%=      5-min Rain = 0
KRO1 191608Z 20012KT 19/07 A2998 RMK A01 T01890065  RH  045%=      5-min Rain = 0
KRO1 191609Z 20011KT 19/06 A2998 RMK A01 T01890064  RH  044%=      5-min Rain = 0
KRO1 191610Z 20010KT 19/07 A2998 RMK A01 T01880065  RH  045%=      5-min Rain = 0
KRO1 191611Z 19009KT 19/07 A2998 RMK A01 T01880065  RH  045%=      5-min Rain = 0
KRO1 191612Z 19012KT 19/07 A2998 RMK A01 T01890066  RH  044%=      5-min Rain = 0
KRO1 191613Z 19012KT 19/07 A2998 RMK A01 T01900065  RH  044%=      5-min Rain = 0
KRO1 191614Z 20010KT 19/07 A2998 RMK A01 T01900066  RH  044%=      5-min Rain = 0
KRO1 191615Z 19010KT 19/07 A2998 RMK A01 T01910066  RH  044%=      5-min Rain = 0
KRO1 191616Z 19010KT 19/07 A2998 RMK A01 T01920066  RH  044%=      5-min Rain = 0
KRO1 191617Z 19011KT 19/07 A2998 RMK A01 T01930066  RH  044%=      5-min Rain = 0
KRO1 191618Z 20010KT 19/07 A2998 RMK A01 T01930066  RH  044%=      5-min Rain = 0
KRO1 191619Z 21011KT 19/07 A2998 RMK A01 T01940066  RH  043%=      5-min Rain = 0
KRO1 191620Z 21011KT 19/06 A2998 RMK A01 T01940064  RH  043%=      5-min Rain = 0
KRO1 191621Z 20008KT 19/07 A2998 RMK A01 T01920065  RH  043%=      5-min Rain = 0
KRO1 191622Z 20009KT 19/07 A2998 RMK A01 T01930067  RH  044%=      5-min Rain = 0
KRO1 191623Z 20010KT 19/07 A2998 RMK A01 T01940067  RH  044%=      5-min Rain = 0
KRO1 191624Z 20009KT 20/07 A2998 RMK A01 T01950067  RH  043%=      5-min Rain = 0
KRO1 191625Z 20010KT 20/07 A2998 RMK A01 T01970068  RH  043%=      5-min Rain = 0
KRO1 191626Z 20007KT 20/07 A2998 RMK A01 T01970067  RH  043%=      5-min Rain = 0
KRO1 191627Z 20008KT 20/07 A2998 RMK A01 T01990069  RH  043%=      5-min Rain = 0
KRO1 191628Z 19011KT 20/07 A2998 RMK A01 T02000068  RH  042%=      5-min Rain = 0
KRO1 191629Z 20010KT 20/07 A2998 RMK A01 T02000067  RH  042%=      5-min Rain = 0
KRO1 191630Z 20010KT 20/07 A2998 RMK A01 T02000068  RH  042%=      5-min Rain = 0
KRO1 191631Z 22010KT 20/07 A2998 RMK A01 T02000067  RH  042%=      5-min Rain = 0
KRO1 191632Z 21009KT 20/07 A2998 RMK A01 T02000068  RH  042%=      5-min Rain = 0
KRO1 191633Z 20010KT 20/07 A2998 RMK A01 T02010069  RH  042%=      5-min Rain = 0
KRO1 191634Z 20009KT 20/07 A2998 RMK A01 T02010069  RH  042%=      5-min Rain = 0
KRO1 191635Z 20012KT 20/07 A2998 RMK A01 T02010068  RH  042%=      5-min Rain = 0
KRO1 191636Z 20011KT 20/07 A2998 RMK A01 T02020069  RH  042%=      5-min Rain = 0
KRO1 191637Z 20013KT 20/07 A2998 RMK A01 T02020067  RH  042%=      5-min Rain = 0
KRO1 191638Z 19011KT 20/07 A2998 RMK A01 T02010067  RH  042%=      5-min Rain = 0
KRO1 191639Z 21011KT 20/07 A2998 RMK A01 T02010069  RH  042%=      5-min Rain = 0
KRO1 191640Z 21011KT 20/07 A2998 RMK A01 T02020068  RH  042%=      5-min Rain = 0
KRO1 191641Z 21010KT 20/07 A2998 RMK A01 T02010068  RH  042%=      5-min Rain = 0
KRO1 191642Z 20011KT 20/07 A2998 RMK A01 T02010069  RH  042%=      5-min Rain = 0
KRO1 191643Z 19011KT 20/07 A2998 RMK A01 T02020069  RH  042%=      5-min Rain = 0
KRO1 191644Z 19011KT 20/07 A2998 RMK A01 T02020068  RH  042%=      5-min Rain = 0
KRO1 191645Z 20011KT 20/07 A2998 RMK A01 T02020068  RH  042%=      5-min Rain = 0
KRO1 191646Z 22009KT 20/07 A2998 RMK A01 T02030068  RH  042%=      5-min Rain = 0
KRO1 191647Z 21010KT 20/07 A2998 RMK A01 T02030068  RH  042%=      5-min Rain = 0
KRO1 191648Z 21010KT 20/07 A2998 RMK A01 T02030067  RH  041%=      5-min Rain = 0
KRO1 191649Z 21008KT 20/07 A2998 RMK A01 T02030068  RH  041%=      5-min Rain = 0
KRO1 191650Z 22008KT 20/07 A2998 RMK A01 T02040068  RH  041%=      5-min Rain = 0
KRO1 191651Z 23007KT 21/07 A2998 RMK A01 T02050069  RH  041%=      5-min Rain = 0
KRO1 191652Z 22008KT 21/07 A2998 RMK A01 T02050067  RH  041%=      5-min Rain = 0
KRO1 191653Z 21007KT 21/07 A2998 RMK A01 T02060069  RH  041%=      5-min Rain = 0
KRO1 191654Z 23007KT 21/07 A2998 RMK A01 T02070069  RH  041%=      5-min Rain = 0
KRO1 191655Z 21007KT 21/07 A2998 RMK A01 T02080070  RH  041%=      5-min Rain = 0
KRO1 191656Z 20008KT 21/07 A2997 RMK A01 T02090070  RH  040%=      5-min Rain = 0
KRO1 191657Z 20007KT 21/07 A2997 RMK A01 T02110071  RH  040%=      5-min Rain = 0
KRO1 191658Z 20007KT 21/07 A2997 RMK A01 T02110069  RH  040%=      5-min Rain = 0
KRO1 191659Z 21006KT 21/07 A2997 RMK A01 T02120069  RH  040%=      5-min Rain = 0
KRO1 191700Z 21008KT 21/07 A2997 RMK A01 T02100067  RH  040%=      5-min Rain = 0
KRO1 191701Z 21007KT 21/07 A2997 RMK A01 T02100070  RH  040%=      5-min Rain = 0
KRO1 191702Z 20007KT 21/07 A2997 RMK A01 T02120070  RH  040%=      5-min Rain = 0
KRO1 191703Z 20008KT 21/07 A2997 RMK A01 T02140071  RH  040%=      5-min Rain = 0
KRO1 191704Z 19008KT 22/07 A2997 RMK A01 T02160073  RH  040%=      5-min Rain = 0
KRO1 191705Z 19012KT 22/07 A2997 RMK A01 T02190073  RH  039%=      5-min Rain = 0
KRO1 191706Z 20010KT 22/07 A2997 RMK A01 T02200074  RH  039%=      5-min Rain = 0
KRO1 191707Z 21009KT 22/07 A2997 RMK A01 T02210074  RH  039%=      5-min Rain = 0
KRO1 191708Z 21009KT 22/07 A2997 RMK A01 T02210072  RH  038%=      5-min Rain = 0
KRO1 191709Z 21010KT 22/07 A2997 RMK A01 T02210073  RH  038%=      5-min Rain = 0
KRO1 191710Z 20013KT 22/07 A2997 RMK A01 T02200070  RH  038%=      5-min Rain = 0
KRO1 191711Z 21011KT 22/07 A2997 RMK A01 T02170072  RH  039%=      5-min Rain = 0
KRO1 191712Z 21010KT 22/07 A2997 RMK A01 T02170072  RH  039%=      5-min Rain = 0
KRO1 191713Z 20011KT 22/07 A2997 RMK A01 T02180073  RH  039%=      5-min Rain = 0
KRO1 191714Z 21013KT 22/07 A2996 RMK A01 T02180071  RH  039%=      5-min Rain = 0
KRO1 191715Z 21011KT 22/07 A2996 RMK A01 T02170071  RH  039%=      5-min Rain = 0
KRO1 191716Z 20013KT 22/07 A2996 RMK A01 T02160072  RH  039%=      5-min Rain = 0
KRO1 191717Z 20011KT 22/07 A2996 RMK A01 T02160071  RH  039%=      5-min Rain = 0
KRO1 191718Z 20012KT 22/07 A2996 RMK A01 T02170072  RH  039%=      5-min Rain = 0
KRO1 191719Z 20013KT 22/07 A2996 RMK A01 T02180071  RH  039%=      5-min Rain = 0
KRO1 191720Z 20013KT 22/07 A2996 RMK A01 T02170072  RH  039%=      5-min Rain = 0
KRO1 191721Z 20011KT 22/07 A2996 RMK A01 T02170072  RH  039%=      5-min Rain = 0
KRO1 191722Z 19012KT 22/07 A2996 RMK A01 T02180073  RH  039%=      5-min Rain = 0
KRO1 191723Z 20011KT 22/07 A2996 RMK A01 T02190073  RH  039%=      5-min Rain = 0
KRO1 191724Z 19012KT 22/07 A2996 RMK A01 T02200074  RH  039%=      5-min Rain = 0
KRO1 191725Z 20011KT 22/07 A2996 RMK A01 T02210074  RH  038%=      5-min Rain = 0
KRO1 191726Z 20012KT 22/07 A2996 RMK A01 T02210072  RH  038%=      5-min Rain = 0
KRO1 191727Z 19013KT 22/07 A2996 RMK A01 T02210071  RH  038%=      5-min Rain = 0
KRO1 191728Z 19014KT 22/07 A2996 RMK A01 T02210073  RH  039%=      5-min Rain = 0
KRO1 191729Z 20011KT 22/07 A2996 RMK A01 T02210073  RH  038%=      5-min Rain = 0
KRO1 191730Z 20012KT 22/07 A2996 RMK A01 T02220073  RH  038%=      5-min Rain = 0
KRO1 191731Z 20009KT 22/07 A2996 RMK A01 T02220074  RH  038%=      5-min Rain = 0
KRO1 191732Z 20013KT 22/08 A2995 RMK A01 T02240075  RH  038%=      5-min Rain = 0
KRO1 191733Z 20014KT 22/07 A2995 RMK A01 T02240072  RH  037%=      5-min Rain = 0
KRO1 191734Z 20014KT 22/07 A2995 RMK A01 T02230072  RH  038%=      5-min Rain = 0
KRO1 191735Z 21013KT 22/07 A2995 RMK A01 T02230073  RH  038%=      5-min Rain = 0
KRO1 191736Z 21014KT 22/07 A2995 RMK A01 T02230073  RH  038%=      5-min Rain = 0
KRO1 191737Z 20010KT 22/07 A2995 RMK A01 T02230073  RH  038%=      5-min Rain = 0
KRO1 191738Z 20011KT 22/07 A2995 RMK A01 T02230073  RH  038%=      5-min Rain = 0
KRO1 191739Z 21012KT 22/07 A2995 RMK A01 T02230073  RH  038%=      5-min Rain = 0
KRO1 191740Z 21009KT 23/08 A2995 RMK A01 T02250076  RH  038%=      5-min Rain = 0
KRO1 191741Z 19010KT 23/08 A2995 RMK A01 T02270075  RH  038%=      5-min Rain = 0
KRO1 191742Z 20010KT 23/08 A2995 RMK A01 T02280075  RH  037%=      5-min Rain = 0
KRO1 191743Z 21010KT 23/08 A2995 RMK A01 T02290077  RH  038%=      5-min Rain = 0
KRO1 191744Z 19009KT 23/08 A2995 RMK A01 T02300076  RH  037%=      5-min Rain = 0
KRO1 191745Z 20010KT 23/08 A2995 RMK A01 T02300076  RH  037%=      5-min Rain = 0
KRO1 191746Z 21012KT 23/08 A2995 RMK A01 T02270075  RH  037%=      5-min Rain = 0
KRO1 191747Z 21012KT 23/07 A2995 RMK A01 T02260074  RH  038%=      5-min Rain = 0
KRO1 191748Z 19012KT 23/08 A2995 RMK A01 T02260075  RH  038%=      5-min Rain = 0
KRO1 191749Z 19012KT 23/07 A2995 RMK A01 T02270074  RH  037%=      5-min Rain = 0
KRO1 191750Z 21010KT 23/07 A2995 RMK A01 T02260074  RH  037%=      5-min Rain = 0
KRO1 191751Z 21012KT 23/08 A2995 RMK A01 T02280076  RH  038%=      5-min Rain = 0
KRO1 191752Z 20010KT 23/08 A2995 RMK A01 T02290075  RH  037%=      5-min Rain = 0
KRO1 191753Z 19008KT 23/08 A2995 RMK A01 T02310078  RH  037%=      5-min Rain = 0
KRO1 191754Z 20011KT 23/08 A2995 RMK A01 T02340078  RH  037%=      5-min Rain = 0
KRO1 191755Z 21010KT 23/08 A2995 RMK A01 T02340075  RH  036%=      5-min Rain = 0
KRO1 191756Z 21011KT 23/08 A2995 RMK A01 T02320075  RH  037%=      5-min Rain = 0
KRO1 191757Z 19011KT 23/08 A2995 RMK A01 T02310076  RH  037%=      5-min Rain = 0
KRO1 191758Z 19009KT 23/08 A2995 RMK A01 T02320076  RH  037%=      5-min Rain = 0
KRO1 191759Z 19010KT 23/08 A2994 RMK A01 T02310075  RH  037%=      5-min Rain = 0
KRO1 191800Z 20009KT 23/08 A2994 RMK A01 T02280075  RH  037%=      5-min Rain = 0
KRO1 191801Z 19011KT 23/08 A2994 RMK A01 T02270075  RH  038%=      5-min Rain = 0
KRO1 191802Z 20010KT 23/08 A2994 RMK A01 T02260075  RH  038%=      5-min Rain = 0
KRO1 191803Z 21010KT 23/08 A2994 RMK A01 T02250075  RH  038%=      5-min Rain = 0
KRO1 191804Z 21008KT 23/07 A2994 RMK A01 T02250074  RH  038%=      5-min Rain = 0
KRO1 191805Z 21011KT 23/07 A2994 RMK A01 T02250074  RH  038%=      5-min Rain = 0
KRO1 191806Z 22010KT 23/08 A2994 RMK A01 T02270076  RH  038%=      5-min Rain = 0
KRO1 191807Z 20009KT 23/08 A2994 RMK A01 T02300077  RH  038%=      5-min Rain = 0
KRO1 191808Z 19011KT 23/08 A2994 RMK A01 T02320076  RH  037%=      5-min Rain = 0
KRO1 191809Z 20011KT 23/08 A2994 RMK A01 T02330075  RH  036%=      5-min Rain = 0
KRO1 191810Z 19010KT 23/08 A2994 RMK A01 T02320076  RH  037%=      5-min Rain = 0
KRO1 191811Z 19008KT 23/08 A2994 RMK A01 T02320076  RH  037%=      5-min Rain = 0
KRO1 191812Z 20008KT 23/08 A2994 RMK A01 T02330078  RH  037%=      5-min Rain = 0
KRO1 191813Z 20010KT 23/08 A2993 RMK A01 T02340078  RH  037%=      5-min Rain = 0
KRO1 191814Z 20009KT 23/08 A2993 RMK A01 T02340077  RH  036%=      5-min Rain = 0
KRO1 191815Z 19008KT 24/08 A2993 RMK A01 T02350076  RH  036%=      5-min Rain = 0
KRO1 191816Z 20007KT 24/08 A2993 RMK A01 T02350077  RH  036%=      5-min Rain = 0
KRO1 191817Z 18009KT 24/08 A2993 RMK A01 T02370078  RH  036%=      5-min Rain = 0
KRO1 191818Z 18011KT 24/08 A2993 RMK A01 T02380079  RH  036%=      5-min Rain = 0
KRO1 191819Z 18013KT 24/08 A2993 RMK A01 T02390076  RH  035%=      5-min Rain = 0
KRO1 191820Z 17013KT 24/07 A2993 RMK A01 T02380074  RH  035%=      5-min Rain = 0
KRO1 191821Z 18012KT 24/08 A2993 RMK A01 T02370075  RH  035%=      5-min Rain = 0
KRO1 191822Z 17010KT 24/07 A2993 RMK A01 T02360074  RH  035%=      5-min Rain = 0
KRO1 191823Z 17009KT 24/08 A2993 RMK A01 T02360076  RH  036%=      5-min Rain = 0
KRO1 191824Z 18012KT 24/08 A2992 RMK A01 T02370076  RH  036%=      5-min Rain = 0
KRO1 191825Z 17013KT 24/07 A2992 RMK A01 T02370074  RH  035%=      5-min Rain = 0
KRO1 191826Z 17012KT 24/07 A2992 RMK A01 T02370074  RH  035%=      5-min Rain = 0
KRO1 191827Z 17012KT 24/08 A2992 RMK A01 T02370075  RH  036%=      5-min Rain = 0
KRO1 191828Z 17010KT 24/07 A2992 RMK A01 T02370074  RH  035%=      5-min Rain = 0
KRO1 191829Z 16012KT 24/07 A2992 RMK A01 T02370074  RH  035%=      5-min Rain = 0
KRO1 191830Z 17013KT 24/07 A2992 RMK A01 T02370074  RH  035%=      5-min Rain = 0
KRO1 191831Z 17011KT 24/07 A2992 RMK A01 T02370074  RH  035%=      5-min Rain = 0
KRO1 191832Z 17010KT 24/08 A2992 RMK A01 T02370075  RH  035%=      5-min Rain = 0
KRO1 191833Z 17009KT 24/08 A2992 RMK A01 T02380076  RH  035%=      5-min Rain = 0
KRO1 191834Z 18008KT 24/08 A2992 RMK A01 T02390078  RH  036%=      5-min Rain = 0
KRO1 191835Z 19013KT 24/08 A2992 RMK A01 T02420075  RH  034%=      5-min Rain = 0
KRO1 191836Z 18012KT 24/07 A2992 RMK A01 T02420073  RH  034%=      5-min Rain = 0
KRO1 191837Z 18011KT 24/08 A2991 RMK A01 T02410075  RH  034%=      5-min Rain = 0
KRO1 191838Z 18011KT 24/08 A2991 RMK A01 T02430075  RH  034%=      5-min Rain = 0
KRO1 191839Z 18011KT 24/08 A2991 RMK A01 T02440076  RH  034%=      5-min Rain = 0
KRO1 191840Z 18012KT 24/07 A2991 RMK A01 T02440074  RH  034%=      5-min Rain = 0
KRO1 191841Z 18011KT 24/07 A2991 RMK A01 T02430073  RH  034%=      5-min Rain = 0
KRO1 191842Z 18010KT 24/08 A2991 RMK A01 T02440076  RH  034%=      5-min Rain = 0
KRO1 191843Z 17009KT 25/08 A2991 RMK A01 T02460075  RH  034%=      5-min Rain = 0
KRO1 191844Z 18010G15KT 25/08 A2991 RMK A01 T02480076  RH  033%=      5-min Rain = 0
KRO1 191845Z 17010KT 25/07 A2991 RMK A01 T02480074  RH  033%=      5-min Rain = 0
KRO1 191846Z 16012KT 25/08 A2991 RMK A01 T02480075  RH  033%=      5-min Rain = 0
KRO1 191847Z 15011KT 25/08 A2991 RMK A01 T02470075  RH  033%=      5-min Rain = 0
KRO1 191848Z 16012KT 25/08 A2991 RMK A01 T02480075  RH  033%=      5-min Rain = 0
KRO1 191849Z 17013KT 25/08 A2991 RMK A01 T02480075  RH  033%=      5-min Rain = 0
KRO1 191850Z 18012KT 25/07 A2991 RMK A01 T02490074  RH  033%=      5-min Rain = 0
KRO1 191851Z 17015KT 25/07 A2991 RMK A01 T02500069  RH  031%=      5-min Rain = 0
KRO1 191852Z 17012KT 25/07 A299 RMK A01 T02500068  RH  031%=      5-min Rain = 0
KRO1 191853Z 17010KT 25/07 A299 RMK A01 T02500069  RH  031%=      5-min Rain = 0
KRO1 191854Z 16010KT 25/07 A299 RMK A01 T02500069  RH  031%=      5-min Rain = 0
KRO1 191855Z 18013G18KT 25/07 A299 RMK A01 T02520070  RH  031%=      5-min Rain = 0
KRO1 191856Z 19013KT 25/07 A299 RMK A01 T02530069  RH  031%=      5-min Rain = 0
KRO1 191857Z 18012KT 25/07 A299 RMK A01 T02510069  RH  031%=      5-min Rain = 0
KRO1 191858Z 17010KT 25/07 A299 RMK A01 T02510068  RH  031%=      5-min Rain = 0
KRO1 191859Z 18009KT 25/07 A299 RMK A01 T02510068  RH  031%=      5-min Rain = 0
KRO1 191900Z 18012KT 25/07 A299 RMK A01 T02520070  RH  031%=      5-min Rain = 0
KRO1 191901Z 19010KT 25/07 A299 RMK A01 T02530068  RH  031%=      5-min Rain = 0
KRO1 191902Z 18011KT 25/07 A299 RMK A01 T02540068  RH  030%=      5-min Rain = 0
KRO1 191903Z 19013KT 26/07 A299 RMK A01 T02560065  RH  030%=      5-min Rain = 0
KRO1 191904Z 18013KT 26/07 A299 RMK A01 T02570066  RH  030%=      5-min Rain = 0
KRO1 191905Z 18012KT 26/06 A299 RMK A01 T02570064  RH  029%=      5-min Rain = 0
KRO1 191906Z 17015KT 25/06 A299 RMK A01 T02540064  RH  030%=      5-min Rain = 0
KRO1 191907Z 17015KT 25/06 A299 RMK A01 T02530064  RH  030%=      5-min Rain = 0
KRO1 191908Z 16017KT 25/06 A2989 RMK A01 T02530063  RH  030%=      5-min Rain = 0
KRO1 191909Z 17013KT 25/06 A2989 RMK A01 T02530064  RH  030%=      5-min Rain = 0
KRO1 191910Z 18014G19KT 25/06 A2989 RMK A01 T02540064  RH  030%=      5-min Rain = 0
KRO1 191911Z 16013KT 26/07 A2989 RMK A01 T02550065  RH  030%=      5-min Rain = 0
KRO1 191912Z 17015KT 26/06 A2989 RMK A01 T02560062  RH  029%=      5-min Rain = 0
KRO1 191913Z 17016KT 26/06 A2989 RMK A01 T02550064  RH  029%=      5-min Rain = 0
KRO1 191914Z 17013KT 25/06 A2989 RMK A01 T02530063  RH  029%=      5-min Rain = 0
KRO1 191915Z 16013KT 25/06 A2989 RMK A01 T02530062  RH  029%=      5-min Rain = 0
KRO1 191916Z 16017KT 25/06 A2989 RMK A01 T02540060  RH  029%=      5-min Rain = 0
KRO1 191917Z 17014KT 25/06 A2989 RMK A01 T02540062  RH  029%=      5-min Rain = 0
KRO1 191918Z 18015KT 26/06 A2989 RMK A01 T02550063  RH  029%=      5-min Rain = 0
KRO1 191919Z 18013KT 26/06 A2989 RMK A01 T02570061  RH  029%=      5-min Rain = 0
KRO1 191920Z 18013KT 26/06 A2989 RMK A01 T02580061  RH  028%=      5-min Rain = 0
KRO1 191921Z 17011KT 26/06 A2989 RMK A01 T02580060  RH  028%=      5-min Rain = 0
KRO1 191922Z 18014G20KT 26/06 A2989 RMK A01 T02580062  RH  028%=      5-min Rain = 0
KRO1 191923Z 18015KT 26/06 A2989 RMK A01 T02600061  RH  028%=      5-min Rain = 0
KRO1 191924Z 18016KT 26/06 A2988 RMK A01 T02580059  RH  028%=      5-min Rain = 0
KRO1 191925Z 19015KT 26/06 A2988 RMK A01 T02570059  RH  028%=      5-min Rain = 0
KRO1 191926Z 18011KT 26/06 A2988 RMK A01 T02560059  RH  028%=      5-min Rain = 0
KRO1 191927Z 19013KT 26/06 A2988 RMK A01 T02570062  RH  029%=      5-min Rain = 0
KRO1 191928Z 19014KT 26/06 A2988 RMK A01 T02600063  RH  028%=      5-min Rain = 0
KRO1 191929Z 19016KT 26/06 A2988 RMK A01 T02600061  RH  028%=      5-min Rain = 0
KRO1 191930Z 18011KT 26/06 A2988 RMK A01 T02600061  RH  028%=      5-min Rain = 0
KRO1 191931Z 18010G15KT 26/06 A2988 RMK A01 T02610064  RH  028%=      5-min Rain = 0
KRO1 191932Z 17012KT 26/06 A2988 RMK A01 T02640064  RH  028%=      5-min Rain = 0
KRO1 191933Z 18014G19KT 27/06 A2988 RMK A01 T02650063  RH  028%=      5-min Rain = 0
KRO1 191934Z 18013KT 26/06 A2988 RMK A01 T02640063  RH  028%=      5-min Rain = 0
KRO1 191935Z 17014KT 27/06 A2988 RMK A01 T02650060  RH  027%=      5-min Rain = 0
KRO1 191936Z 18013KT 26/06 A2988 RMK A01 T02630059  RH  027%=      5-min Rain = 0
KRO1 191937Z 17014KT 26/06 A2988 RMK A01 T02630061  RH  028%=      5-min Rain = 0
KRO1 191938Z 17014KT 26/06 A2988 RMK A01 T02630058  RH  027%=      5-min Rain = 0
KRO1 191939Z 18014KT 26/06 A2987 RMK A01 T02620057  RH  027%=      5-min Rain = 0
KRO1 191940Z 17011KT 26/06 A2988 RMK A01 T02620060  RH  028%=      5-min Rain = 0
KRO1 191941Z 18011KT 26/06 A2987 RMK A01 T02630061  RH  028%=      5-min Rain = 0
KRO1 191942Z 19011KT 27/06 A2987 RMK A01 T02650061  RH  027%=      5-min Rain = 0
KRO1 191943Z 17014KT 27/06 A2987 RMK A01 T02650058  RH  027%=      5-min Rain = 0
KRO1 191944Z 16009KT 26/06 A2987 RMK A01 T02630058  RH  027%=      5-min Rain = 0
KRO1 191945Z 17011KT 26/06 A2987 RMK A01 T02640059  RH  027%=      5-min Rain = 0
KRO1 191946Z 19013KT 27/06 A2987 RMK A01 T02660059  RH  027%=      5-min Rain = 0
KRO1 191947Z 19014KT 27/06 A2987 RMK A01 T02650057  RH  027%=      5-min Rain = 0
KRO1 191948Z 18012KT 26/06 A2987 RMK A01 T02640058  RH  027%=      5-min Rain = 0
KRO1 191949Z 17012KT 26/06 A2987 RMK A01 T02640057  RH  027%=      5-min Rain = 0
KRO1 191950Z 17012KT 26/05 A2987 RMK A01 T02630053  RH  026%=      5-min Rain = 0
KRO1 191951Z 16012KT 26/05 A2987 RMK A01 T02620052  RH  026%=      5-min Rain = 0
KRO1 191952Z 16011KT 26/05 A2987 RMK A01 T02620053  RH  026%=      5-min Rain = 0
KRO1 191953Z 17015KT 26/05 A2987 RMK A01 T02630051  RH  026%=      5-min Rain = 0
KRO1 191954Z 17014KT 26/05 A2987 RMK A01 T02630046  RH  025%=      5-min Rain = 0
KRO1 191955Z 17017KT 26/05 A2987 RMK A01 T02640047  RH  025%=      5-min Rain = 0
KRO1 191956Z 17014KT 27/05 A2987 RMK A01 T02650046  RH  025%=      5-min Rain = 0
KRO1 191957Z 16014KT 27/05 A2987 RMK A01 T02650047  RH  025%=      5-min Rain = 0
KRO1 191958Z 17014KT 27/05 A2987 RMK A01 T02660045  RH  024%=      5-min Rain = 0
KRO1 191959Z 17014KT 27/04 A2987 RMK A01 T02650044  RH  024%=      5-min Rain = 0
KRO1 192000Z 17017KT 27/05 A2986 RMK A01 T02650045  RH  024%=      5-min Rain = 0
KRO1 192001Z 16015G20KT 26/04 A2986 RMK A01 T02640043  RH  024%=      5-min Rain = 0
KRO1 192002Z 17013KT 26/04 A2986 RMK A01 T02630044  RH  025%=      5-min Rain = 0
KRO1 192003Z 18014G19KT 26/05 A2986 RMK A01 T02630045  RH  025%=      5-min Rain = 0
KRO1 192004Z 19011KT 26/04 A2986 RMK A01 T02640043  RH  024%=      5-min Rain = 0
KRO1 192005Z 19014KT 27/04 A2986 RMK A01 T02660042  RH  024%=      5-min Rain = 0
KRO1 192006Z 19012KT 27/04 A2986 RMK A01 T02660041  RH  023%=      5-min Rain = 0
KRO1 192007Z 19010KT 27/04 A2986 RMK A01 T02670040  RH  023%=      5-min Rain = 0
KRO1 192008Z 18010KT 27/04 A2986 RMK A01 T02670043  RH  024%=      5-min Rain = 0
KRO1 192009Z 17011KT 27/04 A2986 RMK A01 T02680044  RH  024%=      5-min Rain = 0
KRO1 192010Z 17011KT 27/04 A2986 RMK A01 T02690043  RH  023%=      5-min Rain = 0
KRO1 192011Z 17011KT 27/04 A2986 RMK A01 T02690044  RH  024%=      5-min Rain = 0
KRO1 192012Z 18012KT 27/05 A2986 RMK A01 T02690046  RH  024%=      5-min Rain = 0
KRO1 192013Z 19016KT 27/04 A2986 RMK A01 T02700044  RH  023%=      5-min Rain = 0
KRO1 192014Z 18014G19KT 27/04 A2986 RMK A01 T02690042  RH  023%=      5-min Rain = 0
KRO1 192015Z 18015KT 27/04 A2986 RMK A01 T02680042  RH  023%=      5-min Rain = 0
KRO1 192016Z 17016KT 27/04 A2986 RMK A01 T02660041  RH  023%=      5-min Rain = 0
KRO1 192017Z 18016KT 27/04 A2986 RMK A01 T02650041  RH  024%=      5-min Rain = 0
KRO1 192018Z 18016KT 27/04 A2986 RMK A01 T02650039  RH  023%=      5-min Rain = 0
KRO1 192019Z 18016KT 27/04 A2986 RMK A01 T02650036  RH  023%=      5-min Rain = 0
KRO1 192020Z 17013KT 27/04 A2986 RMK A01 T02650037  RH  023%=      5-min Rain = 0
KRO1 192021Z 18015KT 27/04 A2986 RMK A01 T02650039  RH  023%=      5-min Rain = 0
KRO1 192022Z 17015KT 26/04 A2986 RMK A01 T02640038  RH  023%=      5-min Rain = 0
KRO1 192023Z 16014KT 27/04 A2986 RMK A01 T02650038  RH  023%=      5-min Rain = 0
KRO1 192024Z 16010KT 26/04 A2986 RMK A01 T02640039  RH  023%=      5-min Rain = 0
KRO1 192025Z 16014KT 27/04 A2986 RMK A01 T02650043  RH  024%=      5-min Rain = 0
KRO1 192026Z 16013KT 27/04 A2985 RMK A01 T02660042  RH  024%=      5-min Rain = 0
KRO1 192027Z 17016KT 27/04 A2985 RMK A01 T02650041  RH  024%=      5-min Rain = 0
KRO1 192028Z 18016KT 26/04 A2985 RMK A01 T02640039  RH  023%=      5-min Rain = 0
KRO1 192029Z 17012KT 26/04 A2985 RMK A01 T02640039  RH  024%=      5-min Rain = 0
KRO1 192030Z 17015KT 27/04 A2985 RMK A01 T02650039  RH  023%=      5-min Rain = 0
KRO1 192031Z 17013G18KT 27/04 A2985 RMK A01 T02660038  RH  023%=      5-min Rain = 0
KRO1 192032Z 16013G18KT 27/04 A2985 RMK A01 T02660038  RH  023%=      5-min Rain = 0
KRO1 192033Z 19013KT 27/04 A2985 RMK A01 T02670040  RH  023%=      5-min Rain = 0
KRO1 192034Z 18012KT 27/04 A2985 RMK A01 T02670039  RH  023%=      5-min Rain = 0
KRO1 192035Z 19012KT 27/04 A2985 RMK A01 T02670039  RH  023%=      5-min Rain = 0
KRO1 192036Z 18014KT 27/04 A2985 RMK A01 T02670037  RH  023%=      5-min Rain = 0
KRO1 192037Z 18011KT 27/04 A2985 RMK A01 T02650037  RH  023%=      5-min Rain = 0
KRO1 192038Z 18011KT 27/04 A2985 RMK A01 T02650040  RH  023%=      5-min Rain = 0
KRO1 192039Z 18013KT 27/04 A2985 RMK A01 T02660039  RH  023%=      5-min Rain = 0
KRO1 192040Z 19011KT 27/04 A2985 RMK A01 T02670040  RH  023%=      5-min Rain = 0
KRO1 192041Z 19013KT 27/04 A2985 RMK A01 T02680038  RH  023%=      5-min Rain = 0
KRO1 192042Z 19012KT 27/04 A2985 RMK A01 T02680039  RH  023%=      5-min Rain = 0
KRO1 192043Z 19013KT 27/04 A2985 RMK A01 T02680038  RH  023%=      5-min Rain = 0
KRO1 192044Z 19012KT 27/04 A2985 RMK A01 T02680039  RH  023%=      5-min Rain = 0
KRO1 192045Z 19012G17KT 27/04 A2985 RMK A01 T02680040  RH  023%=      5-min Rain = 0
KRO1 192046Z 18014KT 27/04 A2985 RMK A01 T02690038  RH  023%=      5-min Rain = 0
KRO1 192047Z 20013KT 27/04 A2985 RMK A01 T02700038  RH  022%=      5-min Rain = 0
KRO1 192048Z 20012KT 27/04 A2984 RMK A01 T02700038  RH  022%=      5-min Rain = 0
KRO1 192049Z 18012KT 27/04 A2984 RMK A01 T02690038  RH  023%=      5-min Rain = 0
KRO1 192050Z 18013KT 27/04 A2984 RMK A01 T02680040  RH  023%=      5-min Rain = 0
KRO1 192051Z 19012KT 27/04 A2984 RMK A01 T02670039  RH  023%=      5-min Rain = 0
KRO1 192052Z 17011KT 27/04 A2984 RMK A01 T02670042  RH  024%=      5-min Rain = 0
KRO1 192053Z 18014KT 27/04 A2984 RMK A01 T02690043  RH  023%=      5-min Rain = 0
KRO1 192054Z 18013KT 27/04 A2984 RMK A01 T02690044  RH  024%=      5-min Rain = 0
KRO1 192055Z 18011KT 27/04 A2984 RMK A01 T02680044  RH  024%=      5-min Rain = 0
KRO1 192056Z 20009KT 27/05 A2984 RMK A01 T02690045  RH  024%=      5-min Rain = 0
KRO1 192057Z 19012KT 27/04 A2984 RMK A01 T02700041  RH  023%=      5-min Rain = 0
KRO1 192058Z 18013KT 27/04 A2984 RMK A01 T02700042  RH  023%=      5-min Rain = 0
KRO1 192059Z 17012KT 27/05 A2984 RMK A01 T02690045  RH  024%=      5-min Rain = 0
KRO1 192100Z 17013KT 27/04 A2984 RMK A01 T02690044  RH  024%=      5-min Rain = 0
KRO1 192101Z 17011KT 27/04 A2984 RMK A01 T02680044  RH  024%=      5-min Rain = 0
KRO1 192102Z 17013G18KT 27/05 A2984 RMK A01 T02670045  RH  024%=      5-min Rain = 0
KRO1 192103Z 19014KT 27/04 A2984 RMK A01 T02680044  RH  024%=      5-min Rain = 0
KRO1 192104Z 19011KT 27/05 A2984 RMK A01 T02680046  RH  024%=      5-min Rain = 0
KRO1 192105Z 19011KT 27/05 A2984 RMK A01 T02680045  RH  024%=      5-min Rain = 0
KRO1 192106Z 20011KT 27/04 A2984 RMK A01 T02680044  RH  024%=      5-min Rain = 0
KRO1 192107Z 20013KT 27/05 A2984 RMK A01 T02680047  RH  024%=      5-min Rain = 0
KRO1 192108Z 19013KT 27/05 A2984 RMK A01 T02680045  RH  024%=      5-min Rain = 0
KRO1 192109Z 19012KT 27/05 A2984 RMK A01 T02680046  RH  024%=      5-min Rain = 0
KRO1 192110Z 20009KT 27/05 A2984 RMK A01 T02680047  RH  024%=      5-min Rain = 0
KRO1 192111Z 18014KT 27/05 A2984 RMK A01 T02690049  RH  024%=      5-min Rain = 0
KRO1 192112Z 18015KT 27/05 A2984 RMK A01 T02690048  RH  024%=      5-min Rain = 0
KRO1 192113Z 18013KT 27/05 A2984 RMK A01 T02670048  RH  025%=      5-min Rain = 0
KRO1 192114Z 18010KT 27/05 A2984 RMK A01 T02650048  RH  025%=      5-min Rain = 0
KRO1 192115Z 18012KT 26/05 A2984 RMK A01 T02640050  RH  025%=      5-min Rain = 0
KRO1 192116Z 18011KT 26/05 A2984 RMK A01 T02640051  RH  026%=      5-min Rain = 0
KRO1 192117Z 18012KT 26/05 A2984 RMK A01 T02640050  RH  025%=      5-min Rain = 0
KRO1 192118Z 18010KT 26/05 A2984 RMK A01 T02640052  RH  026%=      5-min Rain = 0
KRO1 192119Z 19009KT 27/05 A2984 RMK A01 T02650054  RH  026%=      5-min Rain = 0
KRO1 192120Z 19010KT 27/05 A2984 RMK A01 T02670054  RH  026%=      5-min Rain = 0
KRO1 192121Z 18012KT 27/05 A2984 RMK A01 T02680053  RH  025%=      5-min Rain = 0
KRO1 192122Z 17011KT 27/06 A2984 RMK A01 T02680055  RH  026%=      5-min Rain = 0
KRO1 192123Z 16013KT 27/05 A2984 RMK A01 T02680054  RH  025%=      5-min Rain = 0
KRO1 192124Z 17013KT 27/05 A2984 RMK A01 T02670052  RH  025%=      5-min Rain = 0
KRO1 192125Z 16012KT 27/05 A2984 RMK A01 T02650052  RH  025%=      5-min Rain = 0
KRO1 192126Z 16010KT 27/05 A2984 RMK A01 T02650053  RH  026%=      5-min Rain = 0
KRO1 192127Z 16008KT 27/06 A2984 RMK A01 T02650056  RH  026%=      5-min Rain = 0
KRO1 192128Z 17012KT 27/06 A2984 RMK A01 T02650055  RH  026%=      5-min Rain = 0
KRO1 192129Z 16010KT 27/05 A2984 RMK A01 T02650054  RH  026%=      5-min Rain = 0
KRO1 192130Z 17013KT 27/06 A2984 RMK A01 T02650056  RH  026%=      5-min Rain = 0
KRO1 192131Z 17012KT 26/06 A2984 RMK A01 T02640057  RH  027%=      5-min Rain = 0
KRO1 192132Z 17014KT 26/06 A2984 RMK A01 T02630056  RH  027%=      5-min Rain = 0
KRO1 192133Z 18013KT 26/06 A2984 RMK A01 T02610055  RH  027%=      5-min Rain = 0
KRO1 192134Z 18012KT 26/06 A2984 RMK A01 T02610055  RH  027%=      5-min Rain = 0
KRO1 192135Z 19012KT 26/06 A2984 RMK A01 T02610055  RH  027%=      5-min Rain = 0
KRO1 192136Z 18012KT 26/06 A2983 RMK A01 T02610056  RH  027%=      5-min Rain = 0
KRO1 192137Z 16013KT 26/06 A2984 RMK A01 T02620057  RH  027%=      5-min Rain = 0
KRO1 192138Z 16012KT 26/06 A2984 RMK A01 T02610058  RH  027%=      5-min Rain = 0
KRO1 192139Z 17014KT 26/06 A2984 RMK A01 T02610057  RH  027%=      5-min Rain = 0
KRO1 192140Z 16013KT 26/06 A2984 RMK A01 T02600056  RH  027%=      5-min Rain = 0
KRO1 192141Z 16012G17KT 26/06 A2984 RMK A01 T02590056  RH  027%=      5-min Rain = 0
KRO1 192142Z 16016KT 26/06 A2983 RMK A01 T02580056  RH  027%=      5-min Rain = 0
KRO1 192143Z 17014KT 26/06 A2984 RMK A01 T02580056  RH  027%=      5-min Rain = 0
KRO1 192144Z 18010KT 26/06 A2984 RMK A01 T02580058  RH  028%=      5-min Rain = 0
KRO1 192145Z 18011KT 26/06 A2984 RMK A01 T02590060  RH  028%=      5-min Rain = 0
KRO1 192146Z 18014KT 26/06 A2983 RMK A01 T02610058  RH  027%=      5-min Rain = 0
KRO1 192147Z 16013KT 26/06 A2983 RMK A01 T02610058  RH  027%=      5-min Rain = 0
KRO1 192148Z 16013KT 26/06 A2983 RMK A01 T02610059  RH  027%=      5-min Rain = 0
KRO1 192149Z 16011KT 26/06 A2983 RMK A01 T02610058  RH  027%=      5-min Rain = 0
KRO1 192150Z 16011KT 26/06 A2983 RMK A01 T02610059  RH  027%=      5-min Rain = 0
KRO1 192151Z 16014KT 26/06 A2983 RMK A01 T02620058  RH  027%=      5-min Rain = 0
KRO1 192152Z 17014KT 26/06 A2983 RMK A01 T02610059  RH  027%=      5-min Rain = 0
KRO1 192153Z 17013KT 26/06 A2983 RMK A01 T02600058  RH  027%=      5-min Rain = 0
KRO1 192154Z 17013KT 26/06 A2983 RMK A01 T02600056  RH  027%=      5-min Rain = 0
KRO1 192155Z 18013KT 26/06 A2983 RMK A01 T02600057  RH  027%=      5-min Rain = 0
KRO1 192156Z 17012KT 26/06 A2983 RMK A01 T02600057  RH  027%=      5-min Rain = 0
KRO1 192157Z 18012KT 26/06 A2983 RMK A01 T02600058  RH  027%=      5-min Rain = 0
KRO1 192158Z 17014KT 26/06 A2983 RMK A01 T02610058  RH  027%=      5-min Rain = 0
KRO1 192159Z 17014KT 26/06 A2983 RMK A01 T02600056  RH  027%=      5-min Rain = 0
KRO1 192200Z 17012KT 26/06 A2983 RMK A01 T02600058  RH  027%=      5-min Rain = 0
KRO1 192201Z 17014KT 26/06 A2983 RMK A01 T02600058  RH  027%=      5-min Rain = 0
KRO1 192202Z 17012G17KT 26/06 A2983 RMK A01 T02600057  RH  027%=      5-min Rain = 0
KRO1 192203Z 18013KT 26/06 A2983 RMK A01 T02600057  RH  027%=      5-min Rain = 0
KRO1 192204Z 18015KT 26/06 A2983 RMK A01 T02600057  RH  027%=      5-min Rain = 0
KRO1 192205Z 17015KT 26/06 A2983 RMK A01 T02600057  RH  027%=      5-min Rain = 0
KRO1 192206Z 17014KT 26/06 A2983 RMK A01 T02600058  RH  028%=      5-min Rain = 0
KRO1 192207Z 18016KT 26/06 A2983 RMK A01 T02600059  RH  028%=      5-min Rain = 0
KRO1 192208Z 18013KT 26/06 A2983 RMK A01 T02600060  RH  028%=      5-min Rain = 0
KRO1 192209Z 18014KT 26/06 A2983 RMK A01 T02600060  RH  028%=      5-min Rain = 0
KRO1 192210Z 18014KT 26/06 A2983 RMK A01 T02600060  RH  028%=      5-min Rain = 0
KRO1 192211Z 18012KT 26/06 A2983 RMK A01 T02600061  RH  028%=      5-min Rain = 0
KRO1 192212Z 17011KT 26/06 A2983 RMK A01 T02590061  RH  028%=      5-min Rain = 0
KRO1 192213Z 18012KT 26/06 A2983 RMK A01 T02590061  RH  028%=      5-min Rain = 0
KRO1 192214Z 17011KT 26/06 A2983 RMK A01 T02590060  RH  028%=      5-min Rain = 0
KRO1 192215Z 16010KT 26/06 A2983 RMK A01 T02600062  RH  028%=      5-min Rain = 0
KRO1 192216Z 17012KT 26/06 A2983 RMK A01 T02600063  RH  028%=      5-min Rain = 0
KRO1 192217Z 17014KT 26/06 A2983 RMK A01 T02600063  RH  028%=      5-min Rain = 0
KRO1 192218Z 18015KT 26/06 A2983 RMK A01 T02600064  RH  029%=      5-min Rain = 0
KRO1 192219Z 17013KT 26/06 A2983 RMK A01 T02580063  RH  029%=      5-min Rain = 0
KRO1 192220Z 17015KT 26/07 A2983 RMK A01 T02580065  RH  029%=      5-min Rain = 0
KRO1 192221Z 17015KT 26/07 A2983 RMK A01 T02580065  RH  029%=      5-min Rain = 0
KRO1 192222Z 17012KT 26/07 A2983 RMK A01 T02580066  RH  029%=      5-min Rain = 0
KRO1 192223Z 17011KT 26/07 A2983 RMK A01 T02580066  RH  029%=      5-min Rain = 0
KRO1 192224Z 17013KT 26/07 A2983 RMK A01 T02580066  RH  029%=      5-min Rain = 0
KRO1 192225Z 17012KT 26/07 A2983 RMK A01 T02590067  RH  029%=      5-min Rain = 0
KRO1 192226Z 17013KT 26/07 A2983 RMK A01 T02590067  RH  030%=      5-min Rain = 0
KRO1 192227Z 17015KT 26/07 A2983 RMK A01 T02590068  RH  030%=      5-min Rain = 0
KRO1 192228Z 16014KT 26/07 A2983 RMK A01 T02590069  RH  030%=      5-min Rain = 0
KRO1 192229Z 16013KT 26/07 A2983 RMK A01 T02580070  RH  030%=      5-min Rain = 0
KRO1 192230Z 16016KT 26/07 A2983 RMK A01 T02580070  RH  030%=      5-min Rain = 0
KRO1 192231Z 17015KT 26/07 A2983 RMK A01 T02580070  RH  030%=      5-min Rain = 0
KRO1 192232Z 17014KT 26/07 A2983 RMK A01 T02580071  RH  030%=      5-min Rain = 0
KRO1 192233Z 16013KT 26/07 A2983 RMK A01 T02580070  RH  030%=      5-min Rain = 0
KRO1 192234Z 16012KT 26/07 A2983 RMK A01 T02570071  RH  030%=      5-min Rain = 0
KRO1 192235Z 16010KT 26/07 A2983 RMK A01 T02570072  RH  031%=      5-min Rain = 0
KRO1 192236Z 17011KT 26/07 A2983 RMK A01 T02570072  RH  031%=      5-min Rain = 0
KRO1 192237Z 16011KT 26/07 A2983 RMK A01 T02570072  RH  031%=      5-min Rain = 0
KRO1 192238Z 17016KT 26/07 A2983 RMK A01 T02570070  RH  030%=      5-min Rain = 0
KRO1 192239Z 17014KT 26/07 A2983 RMK A01 T02560069  RH  030%=      5-min Rain = 0
KRO1 192240Z 16012KT 26/07 A2983 RMK A01 T02560069  RH  030%=      5-min Rain = 0
KRO1 192241Z 17014KT 26/07 A2983 RMK A01 T02560070  RH  031%=      5-min Rain = 0
KRO1 192242Z 17013KT 26/07 A2983 RMK A01 T02550071  RH  031%=      5-min Rain = 0
KRO1 192243Z 17016KT 25/07 A2982 RMK A01 T02540070  RH  031%=      5-min Rain = 0
KRO1 192244Z 16013KT 25/07 A2982 RMK A01 T02540070  RH  031%=      5-min Rain = 0
KRO1 192245Z 16012KT 25/07 A2983 RMK A01 T02540071  RH  031%=      5-min Rain = 0
KRO1 192246Z 16010KT 25/07 A2983 RMK A01 T02530072  RH  031%=      5-min Rain = 0
KRO1 192247Z 16010KT 25/07 A2983 RMK A01 T02520072  RH  032%=      5-min Rain = 0
KRO1 192248Z 16011KT 25/07 A2983 RMK A01 T02510071  RH  032%=      5-min Rain = 0
KRO1 192249Z 16011KT 25/07 A2983 RMK A01 T02510071  RH  032%=      5-min Rain = 0
KRO1 192250Z 16010KT 25/07 A2983 RMK A01 T02510071  RH  032%=      5-min Rain = 0
KRO1 192251Z 17011KT 25/07 A2983 RMK A01 T02500072  RH  032%=      5-min Rain = 0
KRO1 192252Z 16014KT 25/07 A2982 RMK A01 T02490071  RH  032%=      5-min Rain = 0
KRO1 192253Z 16013KT 25/07 A2982 RMK A01 T02480069  RH  032%=      5-min Rain = 0
KRO1 192254Z 16013KT 25/07 A2982 RMK A01 T02470069  RH  032%=      5-min Rain = 0
KRO1 192255Z 16011KT 25/07 A2982 RMK A01 T02460069  RH  032%=      5-min Rain = 0
KRO1 192256Z 16011KT 25/07 A2983 RMK A01 T02450070  RH  032%=      5-min Rain = 0
KRO1 192257Z 16009KT 24/07 A2983 RMK A01 T02440070  RH  033%=      5-min Rain = 0
KRO1 192258Z 16010KT 24/07 A2983 RMK A01 T02420071  RH  033%=      5-min Rain = 0
KRO1 192259Z 16010KT 24/07 A2983 RMK A01 T02410071  RH  034%=      5-min Rain = 0
KRO1 192300Z 17013KT 24/07 A2983 RMK A01 T02400071  RH  034%=      5-min Rain = 0
KRO1 192301Z 16012KT 24/07 A2983 RMK A01 T02390069  RH  034%=      5-min Rain = 0
KRO1 192302Z 16010KT 24/07 A2983 RMK A01 T02390070  RH  034%=      5-min Rain = 0
KRO1 192303Z 16010KT 24/07 A2983 RMK A01 T02390071  RH  034%=      5-min Rain = 0
KRO1 192304Z 16010KT 24/07 A2983 RMK A01 T02400071  RH  034%=      5-min Rain = 0
KRO1 192305Z 16010KT 24/07 A2983 RMK A01 T02390071  RH  034%=      5-min Rain = 0
KRO1 192306Z 16010KT 24/07 A2983 RMK A01 T02390070  RH  034%=      5-min Rain = 0
KRO1 192307Z 16008KT 24/07 A2983 RMK A01 T02390071  RH  034%=      5-min Rain = 0
KRO1 192308Z 16008KT 24/07 A2983 RMK A01 T02390072  RH  034%=      5-min Rain = 0
KRO1 192309Z 15008KT 24/07 A2983 RMK A01 T02380072  RH  034%=      5-min Rain = 0
KRO1 192310Z 15008KT 24/07 A2983 RMK A01 T02370072  RH  035%=      5-min Rain = 0
KRO1 192311Z 15008KT 24/07 A2983 RMK A01 T02360072  RH  035%=      5-min Rain = 0
KRO1 192312Z 15008KT 23/07 A2983 RMK A01 T02340072  RH  035%=      5-min Rain = 0
KRO1 192313Z 15008KT 23/07 A2982 RMK A01 T02330072  RH  036%=      5-min Rain = 0
KRO1 192314Z 15007KT 23/07 A2982 RMK A01 T02320073  RH  036%=      5-min Rain = 0
KRO1 192315Z 15007KT 23/07 A2982 RMK A01 T02310073  RH  036%=      5-min Rain = 0
KRO1 192316Z 15007KT 23/07 A2982 RMK A01 T02300073  RH  036%=      5-min Rain = 0
KRO1 192317Z 15007KT 23/07 A2982 RMK A01 T02290072  RH  036%=      5-min Rain = 0
KRO1 192318Z 15007KT 23/07 A2982 RMK A01 T02280072  RH  037%=      5-min Rain = 0
KRO1 192319Z 15007KT 23/07 A2982 RMK A01 T02270072  RH  037%=      5-min Rain = 0
KRO1 192320Z 14007KT 23/07 A2982 RMK A01 T02260072  RH  037%=      5-min Rain = 0
KRO1 192321Z 14006KT 22/07 A2982 RMK A01 T02240072  RH  037%=      5-min Rain = 0
KRO1 192322Z 14007KT 22/07 A2982 RMK A01 T02230072  RH  038%=      5-min Rain = 0
KRO1 192323Z 14008KT 22/07 A2982 RMK A01 T02220072  RH  038%=      5-min Rain = 0
KRO1 192324Z 14008KT 22/07 A2982 RMK A01 T02210072  RH  038%=      5-min Rain = 0
KRO1 192325Z 15008KT 22/07 A2982 RMK A01 T02200071  RH  038%=      5-min Rain = 0
KRO1 192326Z 14008KT 22/07 A2982 RMK A01 T02200071  RH  038%=      5-min Rain = 0
KRO1 192327Z 14008KT 22/07 A2982 RMK A01 T02200071  RH  038%=      5-min Rain = 0
KRO1 192328Z 14008KT 22/07 A2982 RMK A01 T02200072  RH  038%=      5-min Rain = 0
KRO1 192329Z 14008KT 22/07 A2982 RMK A01 T02200072  RH  038%=      5-min Rain = 0
KRO1 192330Z 14007KT 22/07 A2982 RMK A01 T02200072  RH  038%=      5-min Rain = 0
KRO1 192331Z 14007KT 22/07 A2982 RMK A01 T02190072  RH  039%=      5-min Rain = 0
KRO1 192332Z 14007KT 22/07 A2982 RMK A01 T02180072  RH  039%=      5-min Rain = 0
KRO1 192333Z 14007KT 22/07 A2982 RMK A01 T02180073  RH  039%=      5-min Rain = 0
KRO1 192334Z 14007KT 22/07 A2982 RMK A01 T02160073  RH  039%=      5-min Rain = 0
KRO1 192335Z 13007KT 22/07 A2982 RMK A01 T02150073  RH  040%=      5-min Rain = 0
KRO1 192336Z 13008KT 21/07 A2982 RMK A01 T02130073  RH  040%=      5-min Rain = 0
KRO1 192337Z 13008KT 21/07 A2982 RMK A01 T02120073  RH  041%=      5-min Rain = 0
KRO1 192338Z 13007KT 21/07 A2982 RMK A01 T02110073  RH  041%=      5-min Rain = 0
KRO1 192339Z 13007KT 21/07 A2982 RMK A01 T02110073  RH  041%=      5-min Rain = 0
KRO1 192340Z 13008KT 21/07 A2982 RMK A01 T02110073  RH  041%=      5-min Rain = 0
KRO1 192341Z 13007KT 21/07 A2982 RMK A01 T02100073  RH  041%=      5-min Rain = 0
KRO1 192342Z 13007KT 21/07 A2982 RMK A01 T02110073  RH  041%=      5-min Rain = 0
KRO1 192343Z 13006KT 21/07 A2982 RMK A01 T02110074  RH  041%=      5-min Rain = 0
KRO1 192344Z 13007KT 21/07 A2982 RMK A01 T02100073  RH  041%=      5-min Rain = 0
KRO1 192345Z 13007KT 21/07 A2982 RMK A01 T02090073  RH  041%=      5-min Rain = 0
KRO1 192346Z 13007KT 21/07 A2982 RMK A01 T02080073  RH  042%=      5-min Rain = 0
KRO1 192347Z 13007KT 21/07 A2982 RMK A01 T02070073  RH  042%=      5-min Rain = 0
KRO1 192348Z 13007KT 21/07 A2982 RMK A01 T02060073  RH  042%=      5-min Rain = 0
KRO1 192349Z 13007KT 21/07 A2982 RMK A01 T02050074  RH  043%=      5-min Rain = 0
KRO1 192350Z 13007KT 20/07 A2982 RMK A01 T02030073  RH  043%=      5-min Rain = 0
KRO1 192351Z 13007KT 20/07 A2982 RMK A01 T02020073  RH  043%=      5-min Rain = 0
KRO1 192352Z 14007KT 20/07 A2982 RMK A01 T02020073  RH  043%=      5-min Rain = 0
KRO1 192353Z 14007KT 20/07 A2982 RMK A01 T02000073  RH  044%=      5-min Rain = 0
KRO1 192354Z 14007KT 20/07 A2982 RMK A01 T01990074  RH  044%=      5-min Rain = 0
KRO1 192355Z 14007KT 20/07 A2982 RMK A01 T01980073  RH  044%=      5-min Rain = 0
KRO1 192356Z 14008KT 20/07 A2982 RMK A01 T01970073  RH  045%=      5-min Rain = 0
KRO1 192357Z 14008KT 20/07 A2982 RMK A01 T01960073  RH  045%=      5-min Rain = 0
KRO1 192358Z 14007KT 20/07 A2982 RMK A01 T01950073  RH  045%=      5-min Rain = 0
KRO1 192359Z 14007KT 19/07 A2982 RMK A01 T01940073  RH  045%=      5-min Rain = 0
KRO1 200000Z 14007KT 19/07 A2982 RMK A01 T01930073  RH  046%=      5-min Rain = 0
KRO1 200001Z 14007KT 19/07 A2982 RMK A01 T01920074  RH  046%=      5-min Rain = 0
KRO1 200002Z 14007KT 19/07 A2982 RMK A01 T01920074  RH  046%=      5-min Rain = 0
KRO1 200003Z 14007KT 19/07 A2982 RMK A01 T01910074  RH  047%=      5-min Rain = 0
KRO1 200004Z 14006KT 19/07 A2982 RMK A01 T01900074  RH  047%=      5-min Rain = 0
KRO1 200005Z 14006KT 19/07 A2982 RMK A01 T01890074  RH  047%=      5-min Rain = 0
KRO1 200006Z 14006KT 19/07 A2982 RMK A01 T01880074  RH  047%=      5-min Rain = 0
KRO1 200007Z 14006KT 19/07 A2982 RMK A01 T01880074  RH  047%=      5-min Rain = 0
KRO1 200008Z 14006KT 19/07 A2982 RMK A01 T01870074  RH  048%=      5-min Rain = 0
KRO1 200009Z 14006KT 19/07 A2982 RMK A01 T01860074  RH  048%=      5-min Rain = 0
KRO1 200010Z 14006KT 19/07 A2982 RMK A01 T01850074  RH  048%=      5-min Rain = 0
KRO1 200011Z 14006KT 19/07 A2982 RMK A01 T01850074  RH  048%=      5-min Rain = 0
KRO1 200012Z 14006KT 18/07 A2982 RMK A01 T01840074  RH  049%=      5-min Rain = 0
KRO1 200013Z 14007KT 18/07 A2982 RMK A01 T01830074  RH  049%=      5-min Rain = 0
KRO1 200014Z 14006KT 18/07 A2982 RMK A01 T01830074  RH  049%=      5-min Rain = 0
KRO1 200015Z 14007KT 18/07 A2982 RMK A01 T01820074  RH  049%=      5-min Rain = 0
KRO1 200016Z 14006KT 18/07 A2982 RMK A01 T01810074  RH  050%=      5-min Rain = 0
KRO1 200017Z 14006KT 18/07 A2982 RMK A01 T01800074  RH  050%=      5-min Rain = 0
KRO1 200018Z 14007KT 18/07 A2982 RMK A01 T01790074  RH  050%=      5-min Rain = 0
KRO1 200019Z 14007KT 18/07 A2982 RMK A01 T01780074  RH  050%=      5-min Rain = 0
KRO1 200020Z 14007KT 18/07 A2982 RMK A01 T01770074  RH  051%=      5-min Rain = 0
KRO1 200021Z 15007KT 18/07 A2982 RMK A01 T01760073  RH  051%=      5-min Rain = 0
KRO1 200022Z 15007KT 18/07 A2982 RMK A01 T01750073  RH  051%=      5-min Rain = 0
KRO1 200023Z 15007KT 17/07 A2982 RMK A01 T01740073  RH  051%=      5-min Rain = 0
KRO1 200024Z 15007KT 17/07 A2982 RMK A01 T01740073  RH  052%=      5-min Rain = 0
KRO1 200025Z 15007KT 17/07 A2982 RMK A01 T01730073  RH  052%=      5-min Rain = 0
KRO1 200026Z 15007KT 17/07 A2982 RMK A01 T01730073  RH  052%=      5-min Rain = 0
KRO1 200027Z 15007KT 17/07 A2982 RMK A01 T01720072  RH  052%=      5-min Rain = 0
KRO1 200028Z 15007KT 17/07 A2982 RMK A01 T01720072  RH  052%=      5-min Rain = 0
KRO1 200029Z 15007KT 17/07 A2982 RMK A01 T01710072  RH  052%=      5-min Rain = 0
KRO1 200030Z 15007KT 17/07 A2982 RMK A01 T01710072  RH  052%=      5-min Rain = 0
KRO1 200031Z 15007KT 17/07 A2982 RMK A01 T01700072  RH  052%=      5-min Rain = 0
KRO1 200032Z 15007KT 17/07 A2983 RMK A01 T01700072  RH  053%=      5-min Rain = 0
KRO1 200033Z 15007KT 17/07 A2983 RMK A01 T01700072  RH  053%=      5-min Rain = 0
KRO1 200034Z 15007KT 17/07 A2983 RMK A01 T01700072  RH  053%=      5-min Rain = 0
KRO1 200035Z 15007KT 17/07 A2983 RMK A01 T01690072  RH  053%=      5-min Rain = 0
KRO1 200036Z 15007KT 17/07 A2983 RMK A01 T01690072  RH  053%=      5-min Rain = 0
KRO1 200037Z 15007KT 17/07 A2982 RMK A01 T01700073  RH  053%=      5-min Rain = 0
KRO1 200038Z 15007KT 17/07 A2982 RMK A01 T01690072  RH  053%=      5-min Rain = 0
KRO1 200039Z 15007KT 17/07 A2982 RMK A01 T01700072  RH  053%=      5-min Rain = 0
KRO1 200040Z 15007KT 17/07 A2982 RMK A01 T01700072  RH  053%=      5-min Rain = 0
KRO1 200041Z 14007KT 17/07 A2982 RMK A01 T01700072  RH  053%=      5-min Rain = 0
KRO1 200042Z 15007KT 17/07 A2983 RMK A01 T01700072  RH  053%=      5-min Rain = 0
KRO1 200043Z 15007KT 17/07 A2983 RMK A01 T01690072  RH  053%=      5-min Rain = 0
KRO1 200044Z 15007KT 17/07 A2983 RMK A01 T01690072  RH  053%=      5-min Rain = 0
KRO1 200045Z 15007KT 17/07 A2983 RMK A01 T01690072  RH  053%=      5-min Rain = 0
KRO1 200046Z 15007KT 17/07 A2983 RMK A01 T01690072  RH  053%=      5-min Rain = 0
KRO1 200047Z 15007KT 17/07 A2983 RMK A01 T01700073  RH  053%=      5-min Rain = 0
KRO1 200048Z 15007KT 17/07 A2983 RMK A01 T01710073  RH  052%=      5-min Rain = 0
KRO1 200049Z 15007KT 17/07 A2983 RMK A01 T01710073  RH  052%=      5-min Rain = 0
KRO1 200050Z 15008KT 17/07 A2983 RMK A01 T01710073  RH  052%=      5-min Rain = 0
KRO1 200051Z 15007KT 17/07 A2983 RMK A01 T01710073  RH  052%=      5-min Rain = 0
KRO1 200052Z 15007KT 17/07 A2983 RMK A01 T01720073  RH  052%=      5-min Rain = 0
KRO1 200053Z 14007KT 17/07 A2983 RMK A01 T01720073  RH  052%=      5-min Rain = 0
KRO1 200054Z 14007KT 17/07 A2983 RMK A01 T01720073  RH  052%=      5-min Rain = 0
KRO1 200055Z 14007KT 17/07 A2983 RMK A01 T01720073  RH  052%=      5-min Rain = 0
KRO1 200056Z 14007KT 17/07 A2983 RMK A01 T01720073  RH  052%=      5-min Rain = 0
KRO1 200057Z 14007KT 17/07 A2983 RMK A01 T01720073  RH  052%=      5-min Rain = 0
KRO1 200058Z 14007KT 17/07 A2983 RMK A01 T01720073  RH  052%=      5-min Rain = 0
KRO1 200059Z 14007KT 17/07 A2983 RMK A01 T01710073  RH  052%=      5-min Rain = 0
KRO1 200100Z 14007KT 17/07 A2983 RMK A01 T01700072  RH  053%=      5-min Rain = 0
KRO1 200101Z 14007KT 17/07 A2983 RMK A01 T01690072  RH  053%=      5-min Rain = 0
KRO1 200102Z 14007KT 17/07 A2983 RMK A01 T01680072  RH  053%=      5-min Rain = 0
KRO1 200103Z 14007KT 17/07 A2983 RMK A01 T01670072  RH  053%=      5-min Rain = 0
KRO1 200104Z 15008KT 17/07 A2983 RMK A01 T01660072  RH  054%=      5-min Rain = 0
KRO1 200105Z 15008KT 17/07 A2982 RMK A01 T01650072  RH  054%=      5-min Rain = 0
KRO1 200106Z 14007KT 17/07 A2983 RMK A01 T01650072  RH  054%=      5-min Rain = 0
KRO1 200107Z 15007KT 16/07 A2983 RMK A01 T01640073  RH  054%=      5-min Rain = 0
KRO1 200108Z 15008KT 16/07 A2983 RMK A01 T01640073  RH  055%=      5-min Rain = 0
KRO1 200109Z 15007KT 16/07 A2983 RMK A01 T01640073  RH  055%=      5-min Rain = 0
KRO1 200110Z 15007KT 16/07 A2983 RMK A01 T01640073  RH  055%=      5-min Rain = 0
KRO1 200111Z 15007KT 17/07 A2983 RMK A01 T01650073  RH  055%=      5-min Rain = 0
KRO1 200112Z 15007KT 17/07 A2983 RMK A01 T01650073  RH  055%=      5-min Rain = 0
KRO1 200113Z 15007KT 17/07 A2983 RMK A01 T01660073  RH  054%=      5-min Rain = 0
KRO1 200114Z 15007KT 17/07 A2983 RMK A01 T01660073  RH  054%=      5-min Rain = 0
KRO1 200115Z 15007KT 17/07 A2983 RMK A01 T01660073  RH  054%=      5-min Rain = 0
KRO1 200116Z 16007KT 17/07 A2983 RMK A01 T01660074  RH  054%=      5-min Rain = 0
KRO1 200117Z 16007KT 17/07 A2983 RMK A01 T01660074  RH  054%=      5-min Rain = 0
KRO1 200118Z 15007KT 17/07 A2983 RMK A01 T01660074  RH  055%=      5-min Rain = 0
KRO1 200119Z 16008KT 17/08 A2983 RMK A01 T01650075  RH  055%=      5-min Rain = 0
KRO1 200120Z 16008KT 16/07 A2983 RMK A01 T01640074  RH  055%=      5-min Rain = 0
KRO1 200121Z 16008KT 16/07 A2983 RMK A01 T01630074  RH  056%=      5-min Rain = 0
KRO1 200122Z 16007KT 16/07 A2983 RMK A01 T01620074  RH  056%=      5-min Rain = 0
KRO1 200123Z 16007KT 16/07 A2983 RMK A01 T01620074  RH  056%=      5-min Rain = 0
KRO1 200124Z 16008KT 16/07 A2983 RMK A01 T01620074  RH  056%=      5-min Rain = 0
KRO1 200125Z 16008KT 16/07 A2983 RMK A01 T01610074  RH  056%=      5-min Rain = 0
KRO1 200126Z 16007KT 16/07 A2983 RMK A01 T01620074  RH  056%=      5-min Rain = 0
KRO1 200127Z 16008KT 16/07 A2983 RMK A01 T01620074  RH  056%=      5-min Rain = 0
KRO1 200128Z 16007KT 16/07 A2983 RMK A01 T01620074  RH  056%=      5-min Rain = 0
KRO1 200129Z 16008KT 16/07 A2983 RMK A01 T01620074  RH  056%=      5-min Rain = 0
KRO1 200130Z 16008KT 16/07 A2983 RMK A01 T01620074  RH  056%=      5-min Rain = 0
KRO1 200131Z 16008KT 16/07 A2983 RMK A01 T01620074  RH  056%=      5-min Rain = 0
KRO1 200132Z 16008KT 16/08 A2983 RMK A01 T01620075  RH  056%=      5-min Rain = 0
KRO1 200133Z 16008KT 16/08 A2983 RMK A01 T01620075  RH  056%=      5-min Rain = 0
KRO1 200134Z 16008KT 16/08 A2983 RMK A01 T01620075  RH  056%=      5-min Rain = 0
KRO1 200135Z 16008KT 16/08 A2983 RMK A01 T01610075  RH  057%=      5-min Rain = 0
KRO1 200136Z 16008KT 16/08 A2983 RMK A01 T01610075  RH  057%=      5-min Rain = 0
KRO1 200137Z 16008KT 16/08 A2983 RMK A01 T01600075  RH  057%=      5-min Rain = 0
KRO1 200138Z 16008KT 16/08 A2983 RMK A01 T01590075  RH  057%=      5-min Rain = 0
KRO1 200139Z 16008KT 16/08 A2983 RMK A01 T01590075  RH  058%=      5-min Rain = 0
KRO1 200140Z 16008KT 16/08 A2983 RMK A01 T01580076  RH  058%=      5-min Rain = 0
KRO1 200141Z 16008KT 16/08 A2983 RMK A01 T01580076  RH  058%=      5-min Rain = 0
KRO1 200142Z 16008KT 16/08 A2983 RMK A01 T01570076  RH  059%=      5-min Rain = 0
KRO1 200143Z 16008KT 16/08 A2983 RMK A01 T01570076  RH  059%=      5-min Rain = 0
KRO1 200144Z 16009KT 16/08 A2983 RMK A01 T01570076  RH  059%=      5-min Rain = 0
KRO1 200145Z 17009KT 16/08 A2983 RMK A01 T01580077  RH  059%=      5-min Rain = 0
KRO1 200146Z 16009KT 16/08 A2983 RMK A01 T01600078  RH  058%=      5-min Rain = 0
KRO1 200147Z 16009KT 16/08 A2983 RMK A01 T01620078  RH  058%=      5-min Rain = 0
KRO1 200148Z 17009KT 16/08 A2983 RMK A01 T01630079  RH  057%=      5-min Rain = 0
KRO1 200149Z 17009KT 17/08 A2983 RMK A01 T01650078  RH  057%=      5-min Rain = 0
KRO1 200150Z 17009KT 17/08 A2983 RMK A01 T01660079  RH  056%=      5-min Rain = 0
KRO1 200151Z 17009KT 17/08 A2983 RMK A01 T01670079  RH  056%=      5-min Rain = 0
KRO1 200152Z 17008KT 17/08 A2983 RMK A01 T01680078  RH  056%=      5-min Rain = 0
KRO1 200153Z 17009KT 17/08 A2983 RMK A01 T01690078  RH  055%=      5-min Rain = 0
KRO1 200154Z 17009KT 17/08 A2983 RMK A01 T01690078  RH  055%=      5-min Rain = 0
KRO1 200155Z 17009KT 17/08 A2983 RMK A01 T01700079  RH  055%=      5-min Rain = 0
KRO1 200156Z 17009KT 17/08 A2983 RMK A01 T01700079  RH  055%=      5-min Rain = 0
KRO1 200157Z 17009KT 17/08 A2983 RMK A01 T01700079  RH  055%=      5-min Rain = 0
KRO1 200158Z 17009KT 17/08 A2983 RMK A01 T01700078  RH  055%=      5-min Rain = 0
KRO1 200159Z 17009KT 17/08 A2983 RMK A01 T01700078  RH  055%=      5-min Rain = 0
KRO1 200200Z 17009KT 17/08 A2983 RMK A01 T01700078  RH  055%=      5-min Rain = 0
KRO1 200201Z 17010KT 17/08 A2983 RMK A01 T01700078  RH  055%=      5-min Rain = 0
KRO1 200202Z 17010KT 17/08 A2983 RMK A01 T01700078  RH  055%=      5-min Rain = 0
KRO1 200203Z 17009KT 17/08 A2983 RMK A01 T01700078  RH  055%=      5-min Rain = 0
KRO1 200204Z 17009KT 17/08 A2983 RMK A01 T01710078  RH  055%=      5-min Rain = 0
KRO1 200205Z 17010KT 17/08 A2983 RMK A01 T01710078  RH  054%=      5-min Rain = 0
KRO1 200206Z 17009KT 17/08 A2983 RMK A01 T01710078  RH  054%=      5-min Rain = 0
KRO1 200207Z 17009KT 17/08 A2983 RMK A01 T01710078  RH  054%=      5-min Rain = 0
KRO1 200208Z 17010KT 17/08 A2983 RMK A01 T01720079  RH  054%=      5-min Rain = 0
KRO1 200209Z 17009KT 17/08 A2983 RMK A01 T01710079  RH  054%=      5-min Rain = 0
KRO1 200210Z 17010KT 17/08 A2983 RMK A01 T01710078  RH  054%=      5-min Rain = 0
KRO1 200211Z 17009KT 17/08 A2983 RMK A01 T01710078  RH  054%=      5-min Rain = 0
KRO1 200212Z 17009KT 17/08 A2983 RMK A01 T01710078  RH  054%=      5-min Rain = 0
KRO1 200213Z 17009KT 17/08 A2983 RMK A01 T01710078  RH  054%=      5-min Rain = 0
KRO1 200214Z 17010KT 17/08 A2983 RMK A01 T01710078  RH  054%=      5-min Rain = 0
KRO1 200215Z 17010KT 17/08 A2983 RMK A01 T01720078  RH  054%=      5-min Rain = 0
KRO1 200216Z 17010KT 17/08 A2983 RMK A01 T01730078  RH  054%=      5-min Rain = 0
KRO1 200217Z 17011KT 17/08 A2983 RMK A01 T01730077  RH  053%=      5-min Rain = 0
KRO1 200218Z 17011KT 18/08 A2983 RMK A01 T01750077  RH  053%=      5-min Rain = 0
KRO1 200219Z 17010KT 18/08 A2983 RMK A01 T01760077  RH  052%=      5-min Rain = 0
KRO1 200220Z 17010KT 18/08 A2983 RMK A01 T01770077  RH  052%=      5-min Rain = 0
KRO1 200221Z 17011KT 18/08 A2983 RMK A01 T01770077  RH  052%=      5-min Rain = 0
KRO1 200222Z 17010KT 18/08 A2983 RMK A01 T01780077  RH  052%=      5-min Rain = 0
KRO1 200223Z 18011KT 18/08 A2984 RMK A01 T01780077  RH  052%=      5-min Rain = 0
KRO1 200224Z 18011KT 18/08 A2984 RMK A01 T01790078  RH  051%=      5-min Rain = 0
KRO1 200225Z 17011KT 18/08 A2984 RMK A01 T01790077  RH  051%=      5-min Rain = 0
KRO1 200226Z 17010KT 18/08 A2984 RMK A01 T01800078  RH  051%=      5-min Rain = 0
KRO1 200227Z 17010KT 18/08 A2984 RMK A01 T01800077  RH  051%=      5-min Rain = 0
KRO1 200228Z 17011KT 18/08 A2984 RMK A01 T01800077  RH  051%=      5-min Rain = 0
KRO1 200229Z 17010KT 18/08 A2984 RMK A01 T01800078  RH  051%=      5-min Rain = 0
KRO1 200230Z 17010KT 18/08 A2984 RMK A01 T01800078  RH  051%=      5-min Rain = 0
KRO1 200231Z 18010KT 18/08 A2984 RMK A01 T01800078  RH  051%=      5-min Rain = 0
KRO1 200232Z 17010KT 18/08 A2984 RMK A01 T01790078  RH  051%=      5-min Rain = 0
KRO1 200233Z 17010KT 18/08 A2984 RMK A01 T01790077  RH  052%=      5-min Rain = 0
KRO1 200234Z 17010KT 18/08 A2984 RMK A01 T01780078  RH  052%=      5-min Rain = 0
KRO1 200235Z 17010KT 18/08 A2984 RMK A01 T01770077  RH  052%=      5-min Rain = 0
KRO1 200236Z 17010KT 18/08 A2984 RMK A01 T01770078  RH  052%=      5-min Rain = 0
KRO1 200237Z 17010KT 18/08 A2984 RMK A01 T01760078  RH  052%=      5-min Rain = 0
KRO1 200238Z 17010KT 18/08 A2984 RMK A01 T01760078  RH  052%=      5-min Rain = 0
KRO1 200239Z 17009KT 18/08 A2984 RMK A01 T01750077  RH  053%=      5-min Rain = 0
KRO1 200240Z 17009KT 18/08 A2984 RMK A01 T01750078  RH  053%=      5-min Rain = 0
KRO1 200241Z 17010KT 17/08 A2984 RMK A01 T01740077  RH  053%=      5-min Rain = 0
KRO1 200242Z 17010KT 17/08 A2984 RMK A01 T01740078  RH  053%=      5-min Rain = 0
KRO1 200243Z 17010KT 17/08 A2984 RMK A01 T01730078  RH  053%=      5-min Rain = 0
KRO1 200244Z 17010KT 17/08 A2984 RMK A01 T01730078  RH  054%=      5-min Rain = 0
KRO1 200245Z 17010KT 17/08 A2984 RMK A01 T01730078  RH  054%=      5-min Rain = 0
KRO1 200246Z 17010KT 17/08 A2984 RMK A01 T01720078  RH  054%=      5-min Rain = 0
KRO1 200247Z 17010KT 17/08 A2984 RMK A01 T01720078  RH  054%=      5-min Rain = 0
KRO1 200248Z 17009KT 17/08 A2984 RMK A01 T01710078  RH  054%=      5-min Rain = 0
KRO1 200249Z 17010KT 17/08 A2984 RMK A01 T01710078  RH  054%=      5-min Rain = 0
KRO1 200250Z 16010KT 17/08 A2984 RMK A01 T01710078  RH  054%=      5-min Rain = 0
KRO1 200251Z 16009KT 17/08 A2984 RMK A01 T01710078  RH  054%=      5-min Rain = 0
KRO1 200252Z 16010KT 17/08 A2984 RMK A01 T01700078  RH  054%=      5-min Rain = 0
KRO1 200253Z 16010KT 17/08 A2984 RMK A01 T01690077  RH  055%=      5-min Rain = 0
KRO1 200254Z 16009KT 17/08 A2984 RMK A01 T01680078  RH  055%=      5-min Rain = 0
KRO1 200255Z 16009KT 17/08 A2984 RMK A01 T01680077  RH  055%=      5-min Rain = 0
KRO1 200256Z 16009KT 17/08 A2984 RMK A01 T01670077  RH  055%=      5-min Rain = 0
KRO1 200257Z 17009KT 17/08 A2984 RMK A01 T01670078  RH  055%=      5-min Rain = 0
KRO1 200258Z 17009KT 17/08 A2984 RMK A01 T01670077  RH  056%=      5-min Rain = 0
KRO1 200259Z 17009KT 17/08 A2984 RMK A01 T01660078  RH  056%=      5-min Rain = 0
KRO1 200300Z 17009KT 17/08 A2984 RMK A01 T01650077  RH  056%=      5-min Rain = 0
KRO1 200301Z 17009KT 17/08 A2984 RMK A01 T01650078  RH  056%=      5-min Rain = 0
KRO1 200302Z 17009KT 16/08 A2984 RMK A01 T01640078  RH  057%=      5-min Rain = 0
KRO1 200303Z 17009KT 16/08 A2984 RMK A01 T01630077  RH  057%=      5-min Rain = 0
KRO1 200304Z 17009KT 16/08 A2984 RMK A01 T01630077  RH  057%=      5-min Rain = 0
KRO1 200305Z 17009KT 16/08 A2984 RMK A01 T01630077  RH  057%=      5-min Rain = 0
KRO1 200306Z 17009KT 16/08 A2984 RMK A01 T01630077  RH  057%=      5-min Rain = 0
KRO1 200307Z 17009KT 16/08 A2984 RMK A01 T01630078  RH  057%=      5-min Rain = 0
KRO1 200308Z 17009KT 16/08 A2984 RMK A01 T01620077  RH  057%=      5-min Rain = 0
KRO1 200309Z 17009KT 16/08 A2984 RMK A01 T01620078  RH  057%=      5-min Rain = 0
KRO1 200310Z 17010KT 16/08 A2984 RMK A01 T01610078  RH  058%=      5-min Rain = 0
KRO1 200311Z 17010KT 16/08 A2983 RMK A01 T01610078  RH  058%=      5-min Rain = 0
KRO1 200312Z 17010KT 16/08 A2983 RMK A01 T01610078  RH  058%=      5-min Rain = 0
KRO1 200313Z 17010KT 16/08 A2983 RMK A01 T01610077  RH  058%=      5-min Rain = 0
KRO1 200314Z 17009KT 16/08 A2983 RMK A01 T01600077  RH  058%=      5-min Rain = 0
KRO1 200315Z 17009KT 16/08 A2983 RMK A01 T01590077  RH  058%=      5-min Rain = 0
KRO1 200316Z 17009KT 16/08 A2983 RMK A01 T01590078  RH  058%=      5-min Rain = 0
KRO1 200317Z 17009KT 16/08 A2983 RMK A01 T01590077  RH  059%=      5-min Rain = 0
KRO1 200318Z 17009KT 16/08 A2983 RMK A01 T01590078  RH  059%=      5-min Rain = 0
KRO1 200319Z 17009KT 16/08 A2983 RMK A01 T01580078  RH  059%=      5-min Rain = 0
KRO1 200320Z 17009KT 16/08 A2983 RMK A01 T01580078  RH  059%=      5-min Rain = 0
KRO1 200321Z 17009KT 16/08 A2983 RMK A01 T01580077  RH  059%=      5-min Rain = 0
KRO1 200322Z 17009KT 16/08 A2983 RMK A01 T01580078  RH  059%=      5-min Rain = 0
KRO1 200323Z 17009KT 16/08 A2983 RMK A01 T01580078  RH  059%=      5-min Rain = 0
KRO1 200324Z 17009KT 16/08 A2984 RMK A01 T01570078  RH  059%=      5-min Rain = 0
KRO1 200325Z 17009KT 16/08 A2984 RMK A01 T01580078  RH  059%=      5-min Rain = 0
KRO1 200326Z 17009KT 16/08 A2984 RMK A01 T01580079  RH  059%=      5-min Rain = 0
KRO1 200327Z 17009KT 16/08 A2984 RMK A01 T01570078  RH  059%=      5-min Rain = 0
KRO1 200328Z 17009KT 16/08 A2984 RMK A01 T01570078  RH  059%=      5-min Rain = 0
KRO1 200329Z 17010KT 16/08 A2984 RMK A01 T01580078  RH  059%=      5-min Rain = 0
KRO1 200330Z 17010KT 16/08 A2984 RMK A01 T01580079  RH  059%=      5-min Rain = 0
KRO1 200331Z 17010KT 16/08 A2984 RMK A01 T01590079  RH  059%=      5-min Rain = 0
KRO1 200332Z 17010KT 16/08 A2984 RMK A01 T01590079  RH  059%=      5-min Rain = 0
KRO1 200333Z 18010KT 16/08 A2984 RMK A01 T01600078  RH  058%=      5-min Rain = 0
KRO1 200334Z 17010KT 16/08 A2984 RMK A01 T01610079  RH  058%=      5-min Rain = 0
KRO1 200335Z 17010KT 16/08 A2984 RMK A01 T01620079  RH  058%=      5-min Rain = 0
KRO1 200336Z 17010KT 16/08 A2984 RMK A01 T01630079  RH  058%=      5-min Rain = 0
KRO1 200337Z 17010KT 16/08 A2984 RMK A01 T01640079  RH  057%=      5-min Rain = 0
KRO1 200338Z 17011KT 16/08 A2984 RMK A01 T01640079  RH  057%=      5-min Rain = 0
KRO1 200339Z 17010KT 16/08 A2984 RMK A01 T01640079  RH  057%=      5-min Rain = 0
KRO1 200340Z 17010KT 16/08 A2984 RMK A01 T01640079  RH  057%=      5-min Rain = 0
KRO1 200341Z 17010KT 16/08 A2984 RMK A01 T01640079  RH  057%=      5-min Rain = 0
KRO1 200342Z 17010KT 16/08 A2984 RMK A01 T01640079  RH  057%=      5-min Rain = 0
KRO1 200343Z 17010KT 16/08 A2984 RMK A01 T01640079  RH  057%=      5-min Rain = 0
KRO1 200344Z 17010KT 16/08 A2984 RMK A01 T01630080  RH  058%=      5-min Rain = 0
KRO1 200345Z 17010KT 16/08 A2984 RMK A01 T01630080  RH  058%=      5-min Rain = 0
KRO1 200346Z 17010KT 16/08 A2984 RMK A01 T01620080  RH  058%=      5-min Rain = 0
KRO1 200347Z 17010KT 16/08 A2984 RMK A01 T01610080  RH  059%=      5-min Rain = 0
KRO1 200348Z 17009KT 16/08 A2984 RMK A01 T01610080  RH  059%=      5-min Rain = 0
KRO1 200349Z 17009KT 16/08 A2984 RMK A01 T01600080  RH  059%=      5-min Rain = 0
KRO1 200350Z 17009KT 16/08 A2984 RMK A01 T01600080  RH  059%=      5-min Rain = 0
KRO1 200351Z 17009KT 16/08 A2984 RMK A01 T01590080  RH  059%=      5-min Rain = 0
KRO1 200352Z 17009KT 16/08 A2984 RMK A01 T01590080  RH  059%=      5-min Rain = 0
KRO1 200353Z 17009KT 16/08 A2984 RMK A01 T01590080  RH  059%=      5-min Rain = 0
KRO1 200354Z 17009KT 16/08 A2984 RMK A01 T01590080  RH  059%=      5-min Rain = 0
KRO1 200355Z 17008KT 16/08 A2984 RMK A01 T01580080  RH  060%=      5-min Rain = 0
KRO1 200356Z 18008KT 16/08 A2984 RMK A01 T01570080  RH  060%=      5-min Rain = 0
KRO1 200357Z 18009KT 16/08 A2984 RMK A01 T01570080  RH  060%=      5-min Rain = 0
KRO1 200358Z 18009KT 16/08 A2984 RMK A01 T01560080  RH  060%=      5-min Rain = 0
KRO1 200359Z 18008KT 16/08 A2984 RMK A01 T01560080  RH  060%=      5-min Rain = 0
KRO1 200400Z 18008KT 16/08 A2985 RMK A01 T01560080  RH  061%=      5-min Rain = 0
KRO1 200401Z 18008KT 16/08 A2985 RMK A01 T01550080  RH  061%=      5-min Rain = 0
KRO1 200402Z 18008KT 16/08 A2985 RMK A01 T01550079  RH  061%=      5-min Rain = 0
KRO1 200403Z 18009KT 16/08 A2985 RMK A01 T01550079  RH  061%=      5-min Rain = 0
KRO1 200404Z 18009KT 16/08 A2985 RMK A01 T01550079  RH  061%=      5-min Rain = 0
KRO1 200405Z 17009KT 16/08 A2984 RMK A01 T01550079  RH  061%=      5-min Rain = 0
KRO1 200406Z 17009KT 16/08 A2984 RMK A01 T01560080  RH  060%=      5-min Rain = 0
KRO1 200407Z 17009KT 16/08 A2984 RMK A01 T01570080  RH  060%=      5-min Rain = 0
KRO1 200408Z 17009KT 16/08 A2984 RMK A01 T01570080  RH  060%=      5-min Rain = 0
KRO1 200409Z 17010KT 16/08 A2984 RMK A01 T01570080  RH  060%=      5-min Rain = 0
KRO1 200410Z 17009KT 16/08 A2984 RMK A01 T01550080  RH  061%=      5-min Rain = 0
KRO1 200411Z 16009KT 15/08 A2984 RMK A01 T01540080  RH  061%=      5-min Rain = 0
KRO1 200412Z 16009KT 15/08 A2984 RMK A01 T01540081  RH  062%=      5-min Rain = 0
KRO1 200413Z 16009KT 15/08 A2984 RMK A01 T01530081  RH  062%=      5-min Rain = 0
KRO1 200414Z 16009KT 15/08 A2984 RMK A01 T01530081  RH  062%=      5-min Rain = 0
KRO1 200415Z 16009KT 15/08 A2984 RMK A01 T01540081  RH  062%=      5-min Rain = 0
KRO1 200416Z 16010KT 15/08 A2984 RMK A01 T01540081  RH  062%=      5-min Rain = 0
KRO1 200417Z 16009KT 16/08 A2984 RMK A01 T01550081  RH  061%=      5-min Rain = 0
KRO1 200418Z 16009KT 16/08 A2984 RMK A01 T01560081  RH  061%=      5-min Rain = 0
KRO1 200419Z 16009KT 16/08 A2984 RMK A01 T01570081  RH  061%=      5-min Rain = 0
KRO1 200420Z 16009KT 16/08 A2984 RMK A01 T01580081  RH  060%=      5-min Rain = 0
KRO1 200421Z 17009KT 16/08 A2984 RMK A01 T01580081  RH  060%=      5-min Rain = 0
KRO1 200422Z 16009KT 16/08 A2984 RMK A01 T01570081  RH  060%=      5-min Rain = 0
KRO1 200423Z 16009KT 16/08 A2984 RMK A01 T01570081  RH  061%=      5-min Rain = 0
KRO1 200424Z 16009KT 16/08 A2984 RMK A01 T01570082  RH  061%=      5-min Rain = 0
KRO1 200425Z 16009KT 16/08 A2984 RMK A01 T01560081  RH  061%=      5-min Rain = 0
KRO1 200426Z 16010KT 16/08 A2984 RMK A01 T01560081  RH  061%=      5-min Rain = 0
KRO1 200427Z 16010KT 16/08 A2984 RMK A01 T01560082  RH  061%=      5-min Rain = 0
KRO1 200428Z 16010KT 16/08 A2984 RMK A01 T01550081  RH  061%=      5-min Rain = 0
KRO1 200429Z 16009KT 16/08 A2984 RMK A01 T01550081  RH  061%=      5-min Rain = 0
KRO1 200430Z 16010KT 16/08 A2984 RMK A01 T01550081  RH  061%=      5-min Rain = 0
KRO1 200431Z 16010KT 16/08 A2984 RMK A01 T01550081  RH  061%=      5-min Rain = 0
KRO1 200432Z 17010KT 16/08 A2984 RMK A01 T01550081  RH  061%=      5-min Rain = 0
KRO1 200433Z 17010KT 16/08 A2984 RMK A01 T01550081  RH  061%=      5-min Rain = 0
KRO1 200434Z 17010KT 16/08 A2984 RMK A01 T01550081  RH  061%=      5-min Rain = 0
KRO1 200435Z 17010KT 16/08 A2984 RMK A01 T01550081  RH  061%=      5-min Rain = 0
KRO1 200436Z 17010KT 16/08 A2984 RMK A01 T01550081  RH  061%=      5-min Rain = 0
KRO1 200437Z 17010KT 16/08 A2984 RMK A01 T01550081  RH  061%=      5-min Rain = 0
KRO1 200438Z 17010KT 16/08 A2984 RMK A01 T01550081  RH  062%=      5-min Rain = 0
KRO1 200439Z 17011KT 16/08 A2983 RMK A01 T01550081  RH  062%=      5-min Rain = 0
KRO1 200440Z 17011KT 16/08 A2983 RMK A01 T01550081  RH  061%=      5-min Rain = 0
KRO1 200441Z 17011KT 16/08 A2983 RMK A01 T01570082  RH  061%=      5-min Rain = 0
KRO1 200442Z 18011KT 16/08 A2983 RMK A01 T01580081  RH  060%=      5-min Rain = 0
KRO1 200443Z 18011KT 16/08 A2983 RMK A01 T01590082  RH  060%=      5-min Rain = 0
KRO1 200444Z 18012KT 16/08 A2983 RMK A01 T01600081  RH  060%=      5-min Rain = 0
KRO1 200445Z 18012KT 16/08 A2983 RMK A01 T01610082  RH  059%=      5-min Rain = 0
KRO1 200446Z 18011KT 16/08 A2983 RMK A01 T01620082  RH  059%=      5-min Rain = 0
KRO1 200447Z 18012KT 16/08 A2983 RMK A01 T01630082  RH  059%=      5-min Rain = 0
KRO1 200448Z 18011KT 16/08 A2983 RMK A01 T01640082  RH  058%=      5-min Rain = 0
KRO1 200449Z 18013KT 17/08 A2983 RMK A01 T01650082  RH  058%=      5-min Rain = 0
KRO1 200450Z 18012KT 17/08 A2984 RMK A01 T01660082  RH  058%=      5-min Rain = 0
KRO1 200451Z 18013KT 17/08 A2984 RMK A01 T01660082  RH  058%=      5-min Rain = 0
KRO1 200452Z 18013KT 17/08 A2984 RMK A01 T01660082  RH  058%=      5-min Rain = 0
KRO1 200453Z 19012KT 17/08 A2984 RMK A01 T01660083  RH  058%=      5-min Rain = 0
KRO1 200454Z 18013KT 17/08 A2984 RMK A01 T01660083  RH  058%=      5-min Rain = 0
KRO1 200455Z 19013KT 17/08 A2984 RMK A01 T01660083  RH  058%=      5-min Rain = 0
KRO1 200456Z 18013KT 17/08 A2984 RMK A01 T01670083  RH  058%=      5-min Rain = 0
KRO1 200457Z 19013KT 17/08 A2984 RMK A01 T01680083  RH  057%=      5-min Rain = 0
KRO1 200458Z 18012KT 17/08 A2984 RMK A01 T01680083  RH  057%=      5-min Rain = 0
KRO1 200459Z 19014KT 17/08 A2983 RMK A01 T01680083  RH  057%=      5-min Rain = 0
KRO1 200500Z 18013KT 17/08 A2983 RMK A01 T01700084  RH  057%=      5-min Rain = 0
KRO1 200501Z 18013KT 17/08 A2983 RMK A01 T01710084  RH  057%=      5-min Rain = 0
KRO1 200502Z 18012KT 17/08 A2983 RMK A01 T01720084  RH  056%=      5-min Rain = 0
KRO1 200503Z 18013KT 17/09 A2983 RMK A01 T01710085  RH  057%=      5-min Rain = 0
KRO1 200504Z 18012KT 17/09 A2983 RMK A01 T01710085  RH  057%=      5-min Rain = 0
KRO1 200505Z 18013KT 17/09 A2983 RMK A01 T01710085  RH  057%=      5-min Rain = 0
KRO1 200506Z 18013KT 17/09 A2983 RMK A01 T01710085  RH  057%=      5-min Rain = 0
KRO1 200507Z 19015KT 17/09 A2983 RMK A01 T01710086  RH  057%=      5-min Rain = 0
KRO1 200508Z 18014KT 17/09 A2983 RMK A01 T01720086  RH  057%=      5-min Rain = 0
KRO1 200509Z 19013KT 17/09 A2983 RMK A01 T01720086  RH  057%=      5-min Rain = 0
KRO1 200510Z 18013KT 17/09 A2983 RMK A01 T01730087  RH  057%=      5-min Rain = 0
KRO1 200511Z 18014G20KT 17/09 A2983 RMK A01 T01720087  RH  057%=      5-min Rain = 0
KRO1 200512Z 18014KT 17/09 A2983 RMK A01 T01730088  RH  057%=      5-min Rain = 0
KRO1 200513Z 19015KT 17/09 A2983 RMK A01 T01740088  RH  057%=      5-min Rain = 0
KRO1 200514Z 18014KT 18/09 A2983 RMK A01 T01750089  RH  057%=      5-min Rain = 0
KRO1 200515Z 18017KT 18/09 A2983 RMK A01 T01750089  RH  057%=      5-min Rain = 0
KRO1 200516Z 19015KT 18/09 A2983 RMK A01 T01770090  RH  057%=      5-min Rain = 0
KRO1 200517Z 19015KT 18/09 A2983 RMK A01 T01780090  RH  057%=      5-min Rain = 0
KRO1 200518Z 18014G19KT 18/09 A2983 RMK A01 T01780090  RH  057%=      5-min Rain = 0
KRO1 200519Z 18015KT 18/09 A2983 RMK A01 T01780091  RH  057%=      5-min Rain = 0
KRO1 200520Z 18014KT 18/09 A2983 RMK A01 T01780092  RH  057%=      5-min Rain = 0
KRO1 200521Z 18015KT 18/09 A2983 RMK A01 T01780092  RH  057%=      5-min Rain = 0
KRO1 200522Z 19014KT 18/09 A2983 RMK A01 T01780092  RH  057%=      5-min Rain = 0
KRO1 200523Z 18015KT 18/09 A2983 RMK A01 T01770092  RH  057%=      5-min Rain = 0
KRO1 200524Z 18014KT 18/09 A2983 RMK A01 T01780093  RH  057%=      5-min Rain = 0
KRO1 200525Z 18013KT 18/09 A2983 RMK A01 T01780093  RH  058%=      5-min Rain = 0
KRO1 200526Z 18015KT 18/09 A2983 RMK A01 T01780094  RH  058%=      5-min Rain = 0
KRO1 200527Z 18016KT 18/09 A2983 RMK A01 T01780094  RH  058%=      5-min Rain = 0
KRO1 200528Z 19015KT 18/10 A2983 RMK A01 T01780095  RH  058%=      5-min Rain = 0
KRO1 200529Z 18013KT 18/10 A2983 RMK A01 T01790096  RH  058%=      5-min Rain = 0
KRO1 200530Z 19015KT 18/10 A2983 RMK A01 T01790096  RH  058%=      5-min Rain = 0
KRO1 200531Z 18015KT 18/10 A2983 RMK A01 T01790096  RH  058%=      5-min Rain = 0
KRO1 200532Z 18014KT 18/10 A2983 RMK A01 T01790097  RH  058%=      5-min Rain = 0
KRO1 200533Z 18014KT 18/10 A2983 RMK A01 T01790097  RH  059%=      5-min Rain = 0
KRO1 200534Z 19014KT 18/10 A2983 RMK A01 T01790097  RH  059%=      5-min Rain = 0
KRO1 200535Z 18013KT 18/10 A2983 RMK A01 T01790097  RH  059%=      5-min Rain = 0
KRO1 200536Z 19014KT 18/10 A2984 RMK A01 T01790098  RH  059%=      5-min Rain = 0
KRO1 200537Z 19014KT 18/10 A2984 RMK A01 T01790098  RH  059%=      5-min Rain = 0
KRO1 200538Z 19014KT 18/10 A2984 RMK A01 T01790098  RH  059%=      5-min Rain = 0
KRO1 200539Z 19015KT 18/10 A2984 RMK A01 T01790098  RH  059%=      5-min Rain = 0
KRO1 200540Z 19014KT 18/10 A2984 RMK A01 T01800099  RH  059%=      5-min Rain = 0
KRO1 200541Z 19012G17KT 18/10 A2984 RMK A01 T01800099  RH  059%=      5-min Rain = 0
KRO1 200542Z 19013KT 18/10 A2984 RMK A01 T01800099  RH  059%=      5-min Rain = 0
KRO1 200543Z 19013KT 18/10 A2984 RMK A01 T01800099  RH  059%=      5-min Rain = 0
KRO1 200544Z 19013KT 18/10 A2984 RMK A01 T01790099  RH  059%=      5-min Rain = 0
KRO1 200545Z 19012KT 18/10 A2984 RMK A01 T01790099  RH  060%=      5-min Rain = 0
KRO1 200546Z 19013KT 18/10 A2984 RMK A01 T01780099  RH  060%=      5-min Rain = 0
KRO1 200547Z 19012KT 18/10 A2984 RMK A01 T01780099  RH  060%=      5-min Rain = 0
KRO1 200548Z 18011G16KT 18/10 A2984 RMK A01 T01780099  RH  060%=      5-min Rain = 0
KRO1 200549Z 19013KT 18/10 A2984 RMK A01 T01770100  RH  060%=      5-min Rain = 0
KRO1 200550Z 18013KT 18/10 A2984 RMK A01 T01770099  RH  060%=      5-min Rain = 0
KRO1 200551Z 19012KT 18/10 A2984 RMK A01 T01770100  RH  060%=      5-min Rain = 0
KRO1 200552Z 18012KT 18/10 A2984 RMK A01 T01780100  RH  060%=      5-min Rain = 0
KRO1 200553Z 19014KT 18/10 A2984 RMK A01 T01770100  RH  061%=      5-min Rain = 0
KRO1 200554Z 19014KT 18/10 A2983 RMK A01 T01770100  RH  061%=      5-min Rain = 0
KRO1 200555Z 19012KT 18/10 A2984 RMK A01 T01780101  RH  061%=      5-min Rain = 0
KRO1 200556Z 19014KT 18/10 A2984 RMK A01 T01780101  RH  061%=      5-min Rain = 0
KRO1 200557Z 19015KT 18/10 A2983 RMK A01 T01780101  RH  061%=      5-min Rain = 0
KRO1 200558Z 19013KT 18/10 A2984 RMK A01 T01780101  RH  060%=      5-min Rain = 0
KRO1 200559Z 19014KT 18/10 A2984 RMK A01 T01780101  RH  061%=      5-min Rain = 0

Page generated in 0.0721 seconds.